DK5BM-6 Weather Reports


time (UTC)temp
C
wind
direction
speed
KPH
gust
KPH
rain 1hr
cm
rain 24hr
cm
rain mn
cm
humidity
%
barometer
mb
20260507144958 12 223 4.8 9.7 0.00 0.99 0.51 75 1018.3
20260507144858 12 224 6.4 9.7 0.00 0.99 0.51 75 1018.4
20260507144758 12 219 4.8 9.7 0.00 0.99 0.51 75 1018.2
20260507144658 12 216 3.2 9.7 0.00 0.99 0.51 76 1018.3
20260507144558 12 214 3.2 9.7 0.00 0.99 0.51 76 1018.3
20260507144358 12 222 1.6 9.7 0.00 0.99 0.51 76 1018.3
20260507144258 12 230 3.2 9.7 0.00 0.99 0.51 76 1018.4
20260507144158 12 239 3.2 9.7 0.00 0.99 0.51 77 1018.1
20260507143958 12 244 0.0 9.7 0.00 0.99 0.51 78 1018.4
20260507143857 12 245 1.6 9.7 0.00 0.99 0.51 77 1018.5
20260507143758 12 247 1.6 9.7 0.00 0.99 0.51 77 1018.4
20260507143658 12 248 4.8 9.7 0.00 0.99 0.51 76 1018.3
20260507143558 12 246 4.8 9.7 0.00 0.99 0.51 76 1018.4
20260507143458 12 248 1.6 9.7 0.00 0.99 0.51 77 1018.5
20260507143357 12 245 1.6 9.7 0.00 0.99 0.51 77 1018.2
20260507143258 12 243 1.6 9.7 0.00 0.99 0.51 77 1018.4
20260507143058 12 241 1.6 9.7 0.00 0.99 0.51 77 1018.3
20260507143000 12 239 3.2 9.7 0.00 0.99 0.51 78 1018.4
20260507142858 12 235 3.2 9.7 0.00 0.99 0.51 78 1018.4
20260507142758 12 231 3.2 9.7 0.00 0.99 0.51 78 1018.3
20260507142658 11 228 3.2 9.7 0.00 0.99 0.51 77 1018.3
20260507142558 11 226 3.2 9.7 0.00 0.99 0.51 78 1018.2
20260507142458 11 224 1.6 9.7 0.00 0.99 0.51 78 1018.2
20260507142358 11 224 3.2 9.7 0.00 0.99 0.51 78 1018.4
20260507142258 11 224 3.2 11.3 0.00 0.99 0.51 78 1018.4
20260507142058 11 220 3.2 11.3 0.00 0.99 0.51 78 1018.3
20260507141958 11 218 1.6 11.3 0.00 0.99 0.51 78 1018.4
20260507141858 11 220 3.2 11.3 0.00 0.99 0.51 78 1018.4
20260507141758 11 222 3.2 11.3 0.00 1.02 0.51 78 1018.4
20260507141659 11 226 3.2 11.3 0.00 1.02 0.51 78 1018.4
20260507141558 11 231 3.2 11.3 0.00 1.02 0.51 78 1018.5
20260507141500 11 229 4.8 11.3 0.00 1.02 0.51 78 1018.5
20260507141358 11 230 3.2 11.3 0.00 1.02 0.51 78 1018.3
20260507141258 11 232 0.0 6.4 0.00 1.02 0.51 79 1018.4
20260507141158 11 231 0.0 6.4 0.00 1.02 0.51 79 1018.5
20260507141058 11 232 0.0 6.4 0.00 1.02 0.51 79 1018.5
20260507140958 11 233 0.0 6.4 0.00 1.02 0.51 79 1018.5
20260507140858 11 232 0.0 6.4 0.00 1.02 0.51 80 1018.5
20260507140558 11 233 1.6 6.4 0.00 1.02 0.51 79 1018.6
20260507140458 11 234 3.2 6.4 0.00 1.02 0.51 79 1018.4
20260507140359 11 237 1.6 3.2 0.00 1.02 0.51 79 1018.7
20260507140258 11 240 0.0 3.2 0.00 1.02 0.51 80 1018.6
20260507140058 11 245 1.6 6.4 0.00 1.02 0.51 80 1018.7
20260507140000 11 237 0.0 6.4 0.00 1.02 0.51 80 1018.4
20260507135859 11 241 1.6 9.7 0.00 1.02 0.51 79 1018.4
20260507135758 11 244 1.6 9.7 0.00 1.02 0.51 80 1018.8
20260507135658 11 246 0.0 9.7 0.00 1.02 0.51 80 1018.4
20260507135258 11 250 1.6 9.7 0.00 1.02 0.51 80 1018.4
20260507135158 11 254 3.2 14.5 0.00 1.02 0.51 80 1018.5
20260507135058 11 253 1.6 14.5 0.00 1.02 0.51 80 1018.2
20260507134758 11 258 3.2 14.5 0.00 1.02 0.51 80 1018.4
20260507134658 11 253 0.0 14.5 0.00 1.02 0.51 81 1018.6
20260507134558 11 253 0.0 14.5 0.00 1.02 0.51 81 1018.4
20260507134358 11 250 0.0 14.5 0.00 1.02 0.51 81 1018.3
20260507134258 11 246 6.4 14.5 0.00 1.04 0.51 80 1018.3
20260507134158 11 232 0.0 9.7 0.00 1.04 0.51 80 1018.6
20260507134059 11 224 1.6 9.7 0.00 1.04 0.51 80 1018.4
20260507133858 11 218 3.2 9.7 0.00 1.04 0.51 80 1018.6
20260507133758 11 217 1.6 9.7 0.00 1.04 0.51 81 1018.4
20260507133458 12 211 1.6 9.7 0.00 1.04 0.51 80 1018.3
20260507133258 12 206 3.2 9.7 0.00 1.04 0.51 79 1018.2
20260507133159 12 208 3.2 9.7 0.00 1.04 0.51 79 1018.3
20260507133058 12 214 6.4 9.7 0.00 1.04 0.51 78 1018.2
20260507133000 12 219 3.2 9.7 0.00 1.04 0.51 79 1018.1
20260507132858 12 217 1.6 9.7 0.00 1.04 0.51 79 1018.1
20260507132758 12 215 1.6 9.7 0.00 1.04 0.51 79 1018.1
20260507132658 12 208 3.2 6.4 0.00 1.04 0.51 78 1018.3
20260507132558 12 209 3.2 6.4 0.00 1.04 0.51 78 1018.1
20260507132459 12 212 3.2 6.4 0.00 1.04 0.51 78 1018.5
20260507132358 12 215 3.2 6.4 0.00 1.04 0.51 78 1018.2
20260507132258 12 221 1.6 11.3 0.00 1.04 0.51 78 1018.2
20260507132158 12 218 1.6 11.3 0.00 1.04 0.51 78 1018.3
20260507132058 12 213 0.0 11.3 0.00 1.04 0.51 78 1018.3
20260507131959 12 213 0.0 11.3 0.00 1.04 0.51 78 1018.3
20260507131858 12 220 3.2 11.3 0.00 1.04 0.51 78 1018.3
20260507131758 12 220 4.8 11.3 0.00 1.09 0.51 78 1018.3
20260507131658 12 224 0.0 11.3 0.00 1.12 0.51 79 1018.2
20260507131559 12 226 0.0 11.3 0.00 1.12 0.51 79 1018.4
20260507131500 12 227 1.6 11.3 0.00 1.12 0.51 79 1018.4
20260507131358 11 228 3.2 11.3 0.00 1.14 0.51 80 1018.2
20260507131258 11 228 3.2 11.3 0.00 1.14 0.51 80 1018.3
20260507131158 11 231 4.8 9.7 0.00 1.17 0.51 80 1018.3
20260507130858 11 228 4.8 11.3 0.00 1.17 0.51 80 1018.1
20260507130758 11 224 3.2 11.3 0.00 1.17 0.51 80 1018.3
20260507130659 12 223 3.2 11.3 0.00 1.17 0.51 80 1018.4
20260507130558 12 221 1.6 11.3 0.00 1.19 0.51 80 1018.2
20260507130458 12 220 3.2 11.3 0.00 1.19 0.51 80 1018.4
20260507130358 11 218 6.4 11.3 0.00 1.19 0.51 80 1018.3
20260507130259 11 216 6.4 11.3 0.00 1.19 0.51 80 1018.2
20260507130158 11 216 3.2 11.3 0.00 1.19 0.51 79 1018.4
20260507130058 12 215 6.4 11.3 0.00 1.19 0.51 79 1018.3
20260507130000 12 218 1.6 11.3 0.00 1.19 0.51 79 1018.4
20260507125858 12 220 6.4 11.3 0.00 1.19 0.51 79 1018.2
20260507125758 12 222 0.0 9.7 0.00 1.19 0.51 79 1018.2
20260507125658 12 221 0.0 9.7 0.00 1.19 0.51 78 1017.9
20260507125559 12 216 0.0 9.7 0.00 1.19 0.51 79 1018.1
20260507125358 12 222 0.0 9.7 0.00 1.19 0.51 78 1018.2
20260507125258 12 227 1.6 9.7 0.00 1.22 0.51 78 1018.2
20260507125159 11 228 1.6 9.7 0.00 1.22 0.51 77 1018.2
20260507125058 12 227 3.2 9.7 0.00 1.22 0.51 78 1018.1
20260507124959 12 226 1.6 9.7 0.00 1.22 0.51 77 1018.1
20260507124858 12 230 1.6 9.7 0.00 1.22 0.51 77 1018.0
20260507124758 12 233 3.2 9.7 0.00 1.22 0.51 77 1018.0
20260507124558 12 243 0.0 9.7 0.00 1.22 0.51 78 1018.1
20260507124500 12 243 4.8 9.7 0.00 1.22 0.51 77 1018.1
20260507124358 12 238 4.8 9.7 0.00 1.22 0.51 77 1018.1
20260507124258 12 234 4.8 9.7 0.00 1.22 0.51 77 1018.2
20260507124158 12 237 0.0 6.4 0.00 1.22 0.51 80 1018.1
20260507124058 12 245 0.0 6.4 0.00 1.22 0.51 79 1018.2
20260507123958 12 249 0.0 6.4 0.00 1.22 0.51 80 1018.1
20260507123859 12 252 1.6 6.4 0.00 1.22 0.51 80 1018.1
20260507123658 12 256 0.0 6.4 0.00 1.22 0.51 79 1018.2
20260507123558 12 256 0.0 6.4 0.00 1.22 0.51 79 1018.0
20260507123458 12 257 0.0 12.9 0.00 1.22 0.51 79 1018.2
20260507123358 12 259 0.0 12.9 0.00 1.22 0.51 81 1018.1
20260507123259 12 256 0.0 12.9 0.00 1.22 0.51 81 1018.1
20260507123159 12 252 1.6 12.9 0.00 1.22 0.51 80 1018.0
20260507122959 12 246 0.0 12.9 0.00 1.22 0.51 81 1018.2
20260507122859 12 244 0.0 12.9 0.00 1.22 0.51 81 1018.1
20260507122758 11 242 3.2 12.9 0.00 1.22 0.51 81 1018.1
20260507122658 11 242 3.2 12.9 0.00 1.22 0.51 81 1018.2
20260507122458 12 239 0.0 6.4 0.00 1.22 0.51 82 1018.3
20260507122359 12 233 0.0 6.4 0.00 1.22 0.51 82 1018.1
20260507122258 12 235 1.6 6.4 0.00 1.22 0.51 81 1017.8
20260507122158 12 237 0.0 9.7 0.00 1.22 0.51 81 1018.3
20260507122058 12 236 1.6 9.7 0.00 1.22 0.51 81 1018.0
20260507121858 12 227 1.6 12.9 0.00 1.22 0.51 81 1018.3
20260507121759 12 222 0.0 12.9 0.00 1.22 0.51 81 1018.0
20260507121658 12 217 0.0 12.9 0.00 1.22 0.51 80 1018.1
20260507121558 12 215 0.0 12.9 0.00 1.22 0.51 80 1017.9
20260507121500 12 217 3.2 12.9 0.00 1.22 0.51 80 1018.0
20260507121358 12 222 0.0 12.9 0.00 1.22 0.51 79 1018.1
20260507121258 12 224 4.8 12.9 0.00 1.22 0.51 78 1017.9
20260507121158 12 218 3.2 12.9 0.00 1.22 0.51 78 1018.0
20260507121059 12 217 3.2 12.9 0.00 1.22 0.51 77 1018.0
20260507120959 12 214 4.8 12.9 0.00 1.22 0.51 75 1017.9
20260507120858 12 214 4.8 12.9 0.00 1.22 0.51 75 1018.1
20260507120758 12 214 4.8 12.9 0.00 1.22 0.51 75 1018.2
20260507120459 12 207 4.8 12.9 0.00 1.22 0.51 76 1018.2
20260507120359 12 201 4.8 12.9 0.00 1.22 0.51 76 1018.2
20260507120258 12 194 4.8 12.9 0.00 1.22 0.51 76 1018.0
20260507120158 12 198 3.2 12.9 0.00 1.22 0.51 76 1018.0
20260507120058 12 200 3.2 12.9 0.00 1.22 0.51 76 1017.9
20260507120000 12 202 3.2 12.9 0.00 1.22 0.51 76 1018.0
20260507115758 12 206 1.6 12.9 0.00 1.22 0.51 77 1017.9
20260507115659 12 210 4.8 12.9 0.00 1.22 0.51 76 1018.0
20260507115558 12 214 4.8 12.9 0.00 1.22 0.51 76 1017.9
20260507115358 12 213 1.6 12.9 0.00 1.22 0.51 77 1018.0
20260507115258 12 219 1.6 12.9 0.00 1.22 0.51 76 1017.9
20260507115159 12 217 1.6 12.9 0.00 1.22 0.51 76 1018.0
20260507115058 12 214 3.2 12.9 0.00 1.22 0.51 76 1017.9
20260507114958 12 210 6.4 12.9 0.00 1.22 0.51 76 1017.8
20260507114858 12 207 3.2 12.9 0.00 1.22 0.51 76 1017.9
20260507114658 12 204 3.2 14.5 0.00 1.22 0.51 76 1017.9
20260507114559 12 205 4.8 17.7 0.00 1.22 0.51 76 1018.0
20260507114459 12 207 4.8 17.7 0.00 1.22 0.51 75 1018.1
20260507114359 12 205 6.4 17.7 0.00 1.22 0.51 75 1018.0
20260507114158 12 197 3.2 17.7 0.00 1.22 0.51 75 1017.9
20260507113958 12 198 6.4 17.7 0.00 1.22 0.51 76 1017.9
20260507113758 12 200 3.2 17.7 0.00 1.22 0.51 77 1017.9
20260507113658 12 204 8.0 17.7 0.00 1.22 0.51 76 1018.0
20260507113559 12 206 6.4 12.9 0.00 1.22 0.51 75 1018.0
20260507113458 12 206 8.0 12.9 0.00 1.22 0.51 75 1018.0
20260507113358 12 215 0.0 12.9 0.00 1.22 0.51 75 1017.9
20260507113258 12 218 0.0 12.9 0.00 1.22 0.51 75 1017.8
20260507113158 12 216 1.6 12.9 0.00 1.22 0.51 76 1018.0
20260507113059 12 213 6.4 12.9 0.00 1.22 0.51 74 1018.0
20260507112858 12 219 3.2 12.9 0.00 1.22 0.51 76 1018.0
20260507112758 12 220 3.2 12.9 0.00 1.22 0.51 76 1017.8
20260507112659 12 210 3.2 11.3 0.00 1.22 0.51 77 1017.9
20260507112558 12 205 3.2 11.3 0.00 1.22 0.51 78 1017.8
20260507112458 12 208 3.2 11.3 0.00 1.22 0.51 79 1017.8
20260507112358 12 192 3.2 11.3 0.00 1.22 0.51 79 1017.8
20260507112258 11 178 6.4 11.3 0.00 1.22 0.51 80 1018.0
20260507112159 11 173 1.6 6.4 0.00 1.22 0.51 80 1017.8
20260507112059 11 183 0.0 6.4 0.00 1.22 0.51 79 1018.0
20260507111958 11 192 0.0 6.4 0.00 1.22 0.51 79 1017.9
20260507111858 11 205 0.0 6.4 0.00 1.22 0.51 79 1018.0
20260507111658 11 216 1.6 6.4 0.00 1.22 0.51 78 1018.0
20260507111500 11 218 3.2 9.7 0.00 1.22 0.51 78 1018.0
20260507111358 11 225 1.6 9.7 0.00 1.22 0.51 78 1018.1
20260507111159 11 234 1.6 9.7 0.00 1.22 0.51 77 1018.0
20260507111059 11 232 3.2 9.7 0.00 1.22 0.51 78 1018.0
20260507110958 11 225 3.2 9.7 0.00 1.22 0.51 78 1018.1
20260507110758 11 212 0.0 9.7 0.00 1.22 0.51 79 1018.1
20260507110658 11 210 3.2 9.7 0.00 1.22 0.51 79 1018.0
20260507110459 11 206 3.2 9.7 0.00 1.22 0.51 79 1018.0
20260507110258 11 197 1.6 12.9 0.00 1.22 0.51 80 1018.1
20260507110158 11 200 1.6 12.9 0.00 1.22 0.51 80 1018.0
20260507110059 11 207 3.2 12.9 0.00 1.22 0.51 80 1018.2
20260507105959 11 210 3.2 12.9 0.00 1.22 0.51 80 1018.2
20260507105859 11 212 3.2 14.5 0.00 1.22 0.51 80 1018.2
20260507105558 11 198 3.2 14.5 0.00 1.22 0.51 79 1017.9
20260507105458 11 196 3.2 14.5 0.00 1.22 0.51 80 1018.0
20260507105358 11 197 6.4 14.5 0.00 1.22 0.51 79 1018.2
20260507105259 11 202 6.4 14.5 0.00 1.22 0.51 79 1017.9
20260507104958 11 192 3.2 14.5 0.00 1.22 0.51 80 1018.2
20260507104858 11 189 6.4 14.5 0.00 1.22 0.51 79 1017.7
20260507104759 11 221 9.7 14.5 0.00 1.22 0.51 79 1018.1
20260507104658 11 221 3.2 9.7 0.00 1.22 0.51 81 1018.0
20260507104500 11 229 1.6 9.7 0.00 1.22 0.51 80 1018.1
20260507104359 11 225 1.6 9.7 0.00 1.22 0.51 80 1018.0
20260507104258 11 218 1.6 9.7 0.00 1.22 0.51 80 1018.2
20260507104158 11 217 0.0 9.7 0.00 1.22 0.51 80 1017.9
20260507104058 11 215 0.0 9.7 0.00 1.22 0.51 80 1018.0
20260507103959 11 213 0.0 9.7 0.00 1.22 0.51 80 1018.1
20260507103859 11 215 3.2 11.3 0.00 1.22 0.51 79 1017.8
20260507103758 11 211 3.2 11.3 0.00 1.22 0.51 79 1018.1
20260507103658 11 214 0.0 11.3 0.00 1.22 0.51 80 1017.9
20260507103558 11 214 1.6 11.3 0.00 1.22 0.51 79 1018.1
20260507103459 11 212 3.2 12.9 0.00 1.22 0.51 77 1018.0
20260507103359 11 208 3.2 12.9 0.00 1.22 0.51 77 1018.0
20260507103258 11 206 3.2 12.9 0.00 1.22 0.51 78 1018.1
20260507103059 11 205 1.6 12.9 0.00 1.22 0.51 78 1017.9
20260507103000 11 206 4.8 12.9 0.00 1.22 0.51 77 1018.1
20260507102859 11 206 8.0 12.9 0.00 1.22 0.51 76 1018.0
20260507102759 11 207 8.0 12.9 0.00 1.22 0.51 76 1018.1
20260507102658 11 212 8.0 12.9 0.00 1.22 0.51 76 1017.9
20260507102558 11 213 8.0 12.9 0.00 1.22 0.51 76 1017.9
20260507102359 12 226 3.2 12.9 0.00 1.22 0.51 77 1017.9
20260507102258 12 235 0.0 12.9 0.00 1.22 0.51 78 1017.9
20260507102158 12 237 0.0 12.9 0.00 1.22 0.51 78 1018.1
20260507102058 11 239 3.2 12.9 0.00 1.22 0.51 78 1018.1
20260507101959 11 240 6.4 12.9 0.00 1.22 0.51 77 1018.1
20260507101859 11 241 4.8 12.9 0.00 1.22 0.51 78 1018.0
20260507101758 11 239 8.0 12.9 0.00 1.22 0.51 78 1017.8
20260507101658 11 237 4.8 11.3 0.00 1.22 0.51 78 1017.7
20260507101558 11 239 3.2 11.3 0.00 1.22 0.51 79 1018.0
20260507101500 11 238 4.8 11.3 0.00 1.22 0.51 78 1018.1
20260507101358 11 243 4.8 11.3 0.00 1.22 0.51 79 1017.9
20260507101258 11 241 1.6 11.3 0.00 1.22 0.51 80 1017.9
20260507101058 11 239 3.2 14.5 0.00 1.22 0.51 79 1018.1
20260507100859 11 239 3.2 14.5 0.00 1.22 0.51 80 1017.8
20260507100758 11 239 3.2 14.5 0.00 1.22 0.51 80 1017.8
20260507100658 10 240 4.8 14.5 0.00 1.22 0.51 79 1017.8
20260507100559 10 238 4.8 14.5 0.00 1.22 0.51 79 1017.9
20260507100458 10 235 4.8 14.5 0.00 1.22 0.51 79 1017.8
20260507100358 10 233 4.8 14.5 0.00 1.22 0.51 79 1018.0
20260507100258 10 229 4.8 14.5 0.00 1.22 0.51 79 1017.8
20260507100159 10 224 3.2 14.5 0.00 1.22 0.51 80 1017.8
20260507100059 10 220 8.0 14.5 0.00 1.22 0.51 80 1017.9
20260507100000 11 211 1.6 6.4 0.00 1.22 0.51 84 1017.9
20260507095859 11 210 1.6 6.4 0.00 1.22 0.51 84 1018.0
20260507095658 11 219 1.6 11.3 0.00 1.22 0.51 84 1018.0
20260507095558 11 229 1.6 11.3 0.00 1.22 0.51 84 1017.8
20260507095459 11 242 1.6 11.3 0.00 1.22 0.51 84 1017.7
20260507095359 11 248 1.6 11.3 0.00 1.22 0.51 84 1017.8
20260507095258 11 252 1.6 11.3 0.00 1.22 0.51 84 1017.8
20260507095158 11 261 1.6 11.3 0.00 1.22 0.51 85 1017.9
20260507095058 10 261 3.2 11.3 0.00 1.22 0.51 84 1017.9
20260507094959 10 265 1.6 11.3 0.00 1.22 0.51 84 1017.8
20260507094858 10 266 3.2 11.3 0.00 1.22 0.51 83 1018.0
20260507094758 10 264 0.0 11.3 0.00 1.22 0.51 85 1017.9
20260507094558 10 251 6.4 11.3 0.00 1.22 0.51 84 1018.0
20260507094500 10 238 6.4 12.9 0.00 1.22 0.51 84 1017.9
20260507094258 10 219 6.4 14.5 0.00 1.22 0.51 84 1017.8
20260507094158 10 209 3.2 14.5 0.00 1.22 0.51 85 1017.9
20260507094059 10 206 3.2 17.7 0.00 1.22 0.51 86 1017.8
20260507093959 10 202 3.2 17.7 0.00 1.22 0.51 86 1017.9
20260507093758 10 199 3.2 17.7 0.00 1.22 0.51 84 1017.8
20260507093558 10 202 3.2 17.7 0.00 1.22 0.51 84 1017.9
20260507093458 10 205 4.8 17.7 0.00 1.22 0.51 84 1017.8
20260507093359 10 205 1.6 17.7 0.00 1.22 0.51 84 1017.9
20260507093259 10 204 6.4 17.7 0.00 1.22 0.51 83 1017.9
20260507093158 10 204 6.4 17.7 0.00 1.22 0.51 83 1018.0
20260507093058 10 206 9.7 17.7 0.00 1.22 0.51 83 1017.9
20260507093000 10 207 4.8 17.7 0.00 1.22 0.51 84 1017.9
20260507092858 10 207 6.4 17.7 0.00 1.22 0.51 84 1017.9
20260507092658 10 204 8.0 17.7 0.00 1.22 0.51 85 1017.9
20260507092559 10 202 3.2 17.7 0.00 1.22 0.51 85 1017.8
20260507092459 10 198 0.0 17.7 0.00 1.22 0.51 85 1017.6
20260507092359 10 193 6.4 17.7 0.00 1.22 0.51 85 1017.9
20260507092258 10 192 9.7 12.9 0.00 1.22 0.51 85 1017.8
20260507092158 10 192 3.2 11.3 0.00 1.22 0.51 87 1017.6
20260507092058 10 196 3.2 11.3 0.00 1.22 0.51 87 1017.7
20260507091958 10 196 3.2 11.3 0.00 1.22 0.51 87 1017.8
20260507091859 10 196 3.2 11.3 0.00 1.22 0.51 87 1017.7
20260507091759 9 201 3.2 11.3 0.00 1.22 0.51 87 1017.9
20260507091658 9 208 3.2 11.3 0.00 1.22 0.51 87 1017.7
20260507091558 9 214 3.2 11.3 0.00 1.22 0.51 87 1017.6
20260507091500 9 218 3.2 11.3 0.00 1.22 0.51 87 1017.7
20260507090958 10 225 1.6 9.7 0.00 1.22 0.51 88 1017.5
20260507090859 9 223 6.4 9.7 0.00 1.22 0.51 88 1017.5
20260507090759 9 218 6.4 9.7 0.00 1.22 0.51 88 1017.7
20260507090659 9 212 6.4 9.7 0.00 1.22 0.51 88 1017.8
20260507090458 10 203 0.0 12.9 0.00 1.22 0.51 88 1017.7
20260507090358 10 199 0.0 12.9 0.00 1.22 0.51 88 1017.7
20260507090259 10 196 0.0 12.9 0.00 1.22 0.51 88 1017.6
20260507090159 10 193 0.0 12.9 0.00 1.22 0.51 88 1017.4
20260507090059 10 190 0.0 12.9 0.00 1.22 0.51 88 1017.6
20260507090000 10 190 0.0 12.9 0.00 1.22 0.51 88 1017.6
20260507085759 9 194 3.2 12.9 0.00 1.22 0.51 87 1017.4
20260507085558 9 200 8.0 12.9 0.00 1.22 0.51 86 1017.5
20260507085258 10 214 3.2 11.3 0.00 1.22 0.51 88 1017.5
20260507085159 10 219 3.2 11.3 0.00 1.22 0.51 88 1017.6
20260507085059 10 219 3.2 11.3 0.00 1.22 0.51 88 1017.5
20260507084958 9 216 3.2 11.3 0.00 1.22 0.51 88 1017.4
20260507084858 9 211 3.2 11.3 0.00 1.22 0.51 88 1017.4
20260507084759 9 207 3.2 11.3 0.00 1.22 0.51 89 1017.3
20260507084659 9 202 3.2 11.3 0.00 1.22 0.51 89 1017.3
20260507084359 9 188 3.2 14.5 0.00 1.22 0.51 89 1017.6
20260507084259 9 183 6.4 14.5 0.00 1.22 0.51 88 1017.5
20260507084158 9 178 4.8 14.5 0.00 1.22 0.51 88 1017.6
20260507084058 9 178 4.8 14.5 0.00 1.22 0.51 88 1017.6
20260507083859 9 174 4.8 14.5 0.00 1.22 0.51 88 1017.5
20260507083759 9 175 4.8 14.5 0.00 1.22 0.51 88 1017.6
20260507083658 9 177 4.8 14.5 0.00 1.22 0.51 88 1017.5
20260507083558 9 179 3.2 14.5 0.00 1.22 0.51 88 1017.7
20260507083458 9 182 8.0 14.5 0.00 1.22 0.51 88 1017.5
20260507083359 9 185 6.4 12.9 0.00 1.22 0.51 87 1017.4
20260507083259 9 186 6.4 12.9 0.00 1.22 0.51 87 1017.5
20260507083158 9 187 6.4 12.9 0.00 1.22 0.51 87 1017.3
20260507083058 9 188 6.4 12.9 0.00 1.22 0.51 87 1017.5
20260507083000 9 184 3.2 11.3 0.00 1.22 0.51 88 1017.5
20260507082859 9 176 3.2 11.3 0.00 1.22 0.51 88 1017.7
20260507082759 9 164 6.4 11.3 0.00 1.22 0.51 88 1017.5
20260507082558 9 139 4.8 11.3 0.00 1.22 0.51 88 1017.3
20260507082458 9 128 1.6 11.3 0.00 1.22 0.51 89 1017.3
20260507082359 9 122 1.6 11.3 0.00 1.22 0.51 89 1017.4
20260507082259 9 116 3.2 11.3 0.00 1.22 0.51 89 1017.4
20260507082158 9 116 1.6 11.3 0.00 1.22 0.51 89 1017.0
20260507082058 8 118 4.8 11.3 0.00 1.22 0.51 89 1017.2
20260507081759 8 182 4.8 11.3 0.00 1.22 0.51 89 1017.2
20260507081659 8 199 4.8 11.3 0.00 1.22 0.51 89 1017.1
20260507081559 8 228 4.8 11.3 0.00 1.22 0.51 89 1017.1
20260507081500 8 247 4.8 11.3 0.00 1.22 0.51 89 1017.2
20260507081359 8 257 4.8 11.3 0.00 1.22 0.51 89 1017.2
20260507081258 8 260 6.4 12.9 0.00 1.22 0.51 90 1017.1
20260507081158 8 253 6.4 14.5 0.03 1.22 0.51 90 1017.2
20260507081059 8 246 6.4 14.5 0.03 1.22 0.51 90 1017.2
20260507080959 8 240 6.4 14.5 0.03 1.22 0.51 90 1017.5
20260507080858 8 236 6.4 14.5 0.03 1.22 0.51 90 1017.3
20260507080758 8 233 6.4 14.5 0.03 1.22 0.51 90 1017.2
20260507080659 8 238 6.4 14.5 0.03 1.22 0.51 91 1017.2
20260507080459 8 226 6.4 14.5 0.03 1.22 0.51 91 1017.3
20260507080258 8 208 3.2 14.5 0.03 1.22 0.51 92 1017.1
20260507080058 8 206 4.8 14.5 0.05 1.22 0.51 92 1017.2
20260507080000 8 202 3.2 14.5 0.05 1.22 0.51 92 1017.1
20260507075858 8 201 3.2 14.5 0.05 1.22 0.51 92 1017.5
20260507075758 8 202 3.2 14.5 0.05 1.22 0.51 92 1017.3
20260507075559 8 200 3.2 14.5 0.05 1.22 0.51 92 1017.4
20260507075359 8 202 3.2 14.5 0.05 1.22 0.51 92 1017.3
20260507075258 8 202 3.2 14.5 0.05 1.22 0.51 92 1017.1
20260507075058 8 209 6.4 17.7 0.05 1.22 0.51 93 1017.2
20260507074959 8 214 3.2 17.7 0.05 1.22 0.51 93 1017.1
20260507074759 8 212 3.2 17.7 0.05 1.22 0.51 93 1017.1
20260507074658 8 211 3.2 17.7 0.10 1.22 0.51 94 1017.1
20260507074558 8 210 3.2 17.7 0.10 1.22 0.51 94 1017.2
20260507074500 8 206 4.8 17.7 0.10 1.22 0.51 94 1017.1
20260507074359 8 206 6.4 17.7 0.10 1.22 0.51 94 1017.2
20260507074058 8 204 8.0 17.7 0.10 1.22 0.51 94 1017.1
20260507073859 8 203 3.2 9.7 0.10 1.22 0.51 96 1017.0
20260507073759 8 204 3.2 9.7 0.10 1.22 0.51 96 1017.1
20260507073659 8 204 3.2 9.7 0.10 1.22 0.51 96 1017.2
20260507073558 8 202 4.8 9.7 0.10 1.22 0.51 96 1017.0
20260507073459 8 200 3.2 9.7 0.10 1.22 0.51 96 1017.0
20260507073359 8 196 3.2 9.7 0.10 1.22 0.51 96 1016.9
20260507073259 8 192 3.2 9.7 0.10 1.22 0.51 96 1017.0
20260507073158 8 187 3.2 9.7 0.10 1.22 0.51 96 1017.2
20260507073058 8 179 3.2 9.7 0.10 1.22 0.51 96 1016.9
20260507073000 8 175 3.2 6.4 0.10 1.22 0.51 96 1017.0
20260507072858 8 168 3.2 6.4 0.10 1.22 0.51 96 1017.0
20260507072658 8 160 3.2 6.4 0.13 1.22 0.51 97 1016.9
20260507072559 8 160 3.2 6.4 0.13 1.22 0.51 97 1016.9
20260507072459 8 163 3.2 6.4 0.13 1.22 0.51 97 1017.0
20260507072358 8 167 3.2 6.4 0.13 1.22 0.51 97 1016.9
20260507072158 8 178 3.2 9.7 0.13 1.22 0.51 97 1016.9
20260507072058 8 188 3.2 9.7 0.13 1.22 0.51 97 1016.8
20260507071959 8 192 0.0 9.7 0.13 1.22 0.51 97 1016.8
20260507071859 8 187 3.2 9.7 0.13 1.22 0.51 97 1016.6
20260507071758 8 188 3.2 9.7 0.13 1.22 0.51 97 1016.8
20260507071658 8 189 0.0 9.7 0.13 1.22 0.51 97 1016.7
20260507071559 8 192 0.0 9.7 0.13 1.22 0.51 97 1016.8
20260507071158 8 200 4.8 9.7 0.10 1.19 0.48 97 1016.6
20260507071059 8 194 4.8 9.7 0.10 1.19 0.48 97 1016.6
20260507070859 8 195 3.2 9.7 0.10 1.19 0.48 97 1016.6
20260507070659 8 199 1.6 9.7 0.10 1.19 0.48 97 1016.7
20260507070558 8 200 3.2 9.7 0.10 1.19 0.48 97 1016.7
20260507070459 8 201 3.2 9.7 0.10 1.19 0.48 97 1016.6
20260507070359 7 202 3.2 9.7 0.10 1.19 0.48 97 1016.5
20260507070258 7 201 3.2 9.7 0.10 1.19 0.48 97 1016.7
20260507070158 7 197 4.8 9.7 0.05 1.17 0.46 97 1016.6
20260507070059 7 200 4.8 9.7 0.05 1.17 0.46 97 1016.4
20260507070000 7 204 4.8 9.7 0.05 1.17 0.46 97 1016.7
20260507065859 8 202 1.6 9.7 0.05 1.17 0.46 98 1016.7
20260507065659 8 190 3.2 9.7 0.05 1.17 0.46 97 1016.7
20260507065559 8 179 3.2 9.7 0.05 1.17 0.46 97 1016.5
20260507065458 8 175 0.0 9.7 0.05 1.17 0.46 98 1016.7
20260507065358 8 178 1.6 9.7 0.05 1.17 0.46 98 1016.7
20260507065159 8 183 0.0 9.7 0.05 1.17 0.46 98 1016.7
20260507064959 8 187 1.6 9.7 0.10 1.17 0.46 98 1016.7
20260507064859 8 189 3.2 9.7 0.10 1.17 0.46 98 1016.6
20260507064758 8 192 4.8 9.7 0.05 1.14 0.43 98 1016.5
20260507064658 8 198 4.8 9.7 0.05 1.14 0.43 98 1016.5
20260507064559 8 203 4.8 9.7 0.05 1.14 0.43 98 1016.5
20260507064500 8 210 1.6 9.7 0.05 1.14 0.43 98 1016.6
20260507064358 8 209 3.2 9.7 0.05 1.14 0.43 98 1016.6
20260507064159 8 204 3.2 9.7 0.05 1.14 0.43 98 1016.5
20260507064059 8 203 3.2 9.7 0.05 1.14 0.43 98 1016.3
20260507063959 7 201 3.2 9.7 0.05 1.14 0.43 98 1016.5
20260507063858 8 197 1.6 9.7 0.05 1.14 0.43 98 1016.2
20260507063758 8 191 1.6 9.7 0.05 1.14 0.43 98 1016.3
20260507063659 8 186 1.6 9.7 0.05 1.14 0.43 98 1016.4
20260507063559 7 183 3.2 9.7 0.05 1.14 0.43 98 1016.5
20260507063459 7 177 4.8 9.7 0.05 1.14 0.43 98 1016.3
20260507063358 8 167 0.0 6.4 0.05 1.14 0.43 98 1016.4
20260507063259 8 169 0.0 6.4 0.05 1.14 0.43 98 1016.4
20260507063159 8 177 0.0 6.4 0.05 1.14 0.43 98 1016.4
20260507063059 8 185 0.0 6.4 0.05 1.14 0.43 98 1016.1
20260507063000 8 186 0.0 6.4 0.05 1.14 0.43 98 1016.4
20260507062859 8 188 3.2 6.4 0.05 1.14 0.43 98 1016.3
20260507062659 8 194 3.2 6.4 0.03 1.12 0.38 98 1016.1
20260507062558 8 191 3.2 6.4 0.03 1.12 0.38 98 1016.1
20260507062459 8 188 0.0 6.4 0.03 1.12 0.38 98 1016.3
20260507062359 8 189 1.6 6.4 0.03 1.12 0.38 99 1016.4
20260507062159 8 184 3.2 6.4 0.05 1.12 0.38 98 1016.2
20260507061958 8 175 3.2 9.7 0.05 1.12 0.38 98 1016.1
20260507061859 8 177 0.0 9.7 0.05 1.12 0.38 99 1016.2
20260507061659 8 178 0.0 9.7 0.05 1.12 0.38 99 1016.3
20260507061558 8 179 0.0 9.7 0.05 1.12 0.38 99 1016.2
20260507061501 8 182 0.0 9.7 0.05 1.12 0.38 99 1016.4
20260507061359 7 185 1.6 9.7 0.05 1.12 0.38 99 1016.2
20260507061258 8 187 3.2 9.7 0.05 1.12 0.38 99 1016.3
20260507061158 8 189 3.2 9.7 0.05 1.12 0.38 99 1016.3
20260507061058 8 191 3.2 9.7 0.05 1.12 0.38 99 1016.3
20260507060959 8 191 6.4 9.7 0.05 1.12 0.38 99 1016.2
20260507060859 8 192 3.2 9.7 0.05 1.12 0.38 99 1016.3
20260507060759 8 189 3.2 9.7 0.05 1.12 0.38 99 1016.2
20260507060658 8 192 3.2 9.7 0.05 1.12 0.38 99 1016.2
20260507060558 8 193 3.2 9.7 0.05 1.12 0.38 99 1016.4
20260507060459 8 195 6.4 9.7 0.05 1.12 0.38 99 1016.3
20260507060359 8 197 4.8 9.7 0.05 1.12 0.38 99 1016.1
20260507060258 8 194 4.8 9.7 0.05 1.12 0.38 99 1016.1
20260507060158 8 192 4.8 9.7 0.05 1.12 0.38 99 1016.3
20260507060059 8 193 3.2 9.7 0.05 1.12 0.38 99 1016.1
20260507060000 8 197 3.2 9.7 0.05 1.12 0.38 99 1016.1
20260507055859 8 200 3.2 9.7 0.05 1.12 0.38 99 1016.1
20260507055759 8 210 1.6 9.7 0.05 1.12 0.38 99 1016.1
20260507055659 8 210 0.0 9.7 0.05 1.12 0.38 99 1016.0
20260507055559 8 211 3.2 9.7 0.05 1.12 0.38 99 1016.1
20260507055458 8 209 3.2 9.7 0.05 1.12 0.38 99 1015.9
20260507055358 8 199 4.8 6.4 0.05 1.12 0.38 99 1016.1
20260507055259 8 201 3.2 6.4 0.05 1.12 0.38 99 1016.0
20260507055059 8 197 1.6 6.4 0.03 1.09 0.36 99 1016.2
20260507054859 8 193 1.6 6.4 0.03 1.09 0.36 99 1016.0
20260507054758 8 192 1.6 6.4 0.03 1.09 0.36 99 1015.8
20260507054658 8 189 1.6 6.4 0.05 1.09 0.36 99 1016.0
20260507054500 8 192 1.6 6.4 0.05 1.09 0.36 99 1016.0
20260507054358 8 195 1.6 6.4 0.05 1.09 0.36 99 1016.0
20260507054258 8 201 1.6 6.4 0.05 1.09 0.36 99 1016.1
20260507054159 8 206 3.2 6.4 0.05 1.09 0.36 99 1015.9
20260507054059 8 206 3.2 6.4 0.05 1.09 0.36 99 1016.0
20260507053758 8 202 1.6 6.4 0.05 1.09 0.36 99 1016.0
20260507053659 8 200 1.6 6.4 0.05 1.09 0.36 99 1015.8
20260507053559 8 197 1.6 6.4 0.05 1.09 0.36 99 1015.8
20260507053258 8 184 0.0 6.4 0.05 1.09 0.36 99 1015.9
20260507053059 8 177 3.2 6.4 0.05 1.09 0.36 99 1015.7
20260507053001 8 170 3.2 6.4 0.05 1.09 0.36 99 1015.9
20260507052759 8 160 1.6 6.4 0.05 1.09 0.36 99 1015.6
20260507052459 8 163 0.0 3.2 0.36 1.09 0.36 99 1015.7
20260507052358 8 166 3.2 3.2 0.36 1.09 0.36 99 1016.0
20260507052159 8 170 0.0 3.2 0.33 1.04 0.33 99 1015.7
20260507052059 8 170 0.0 3.2 0.33 1.04 0.33 99 1015.6
20260507051959 8 168 0.0 3.2 0.33 1.04 0.33 99 1015.8
20260507051858 8 169 0.0 3.2 0.33 1.04 0.33 99 1015.7
20260507051759 8 167 1.6 6.4 0.33 1.04 0.33 99 1015.7
20260507051659 8 166 0.0 6.4 0.33 1.04 0.33 99 1015.7
20260507051501 8 161 0.0 6.4 0.33 1.04 0.33 99 1015.8
20260507051359 8 158 0.0 6.4 0.33 1.04 0.33 99 1015.7
20260507051259 8 158 0.0 6.4 0.33 1.04 0.33 99 1015.7
20260507051159 8 159 0.0 6.4 0.33 1.04 0.33 99 1015.4
20260507051058 8 160 0.0 6.4 0.33 1.04 0.33 99 1015.4
20260507050959 8 161 0.0 6.4 0.33 1.04 0.33 99 1015.7
20260507050859 8 163 3.2 6.4 0.33 1.04 0.33 99 1015.6
20260507050659 8 167 3.2 6.4 0.33 1.04 0.33 99 1015.5
20260507050558 8 168 1.6 6.4 0.33 1.04 0.33 99 1015.4
20260507050458 8 168 1.6 6.4 0.33 1.04 0.33 99 1015.6
20260507050359 8 169 1.6 6.4 0.33 1.04 0.33 99 1015.3
20260507050259 8 169 0.0 6.4 0.33 1.04 0.33 99 1015.6
20260507050159 8 167 0.0 6.4 0.33 1.04 0.33 99 1015.6
20260507050000 8 164 0.0 6.4 0.33 1.04 0.33 99 1015.5
20260507045859 8 162 0.0 6.4 0.33 1.04 0.33 99 1015.3
20260507045558 8 158 1.6 3.2 0.33 1.04 0.33 99 1015.3
20260507045459 8 158 1.6 3.2 0.33 1.04 0.33 99 1015.3
20260507045259 8 158 1.6 3.2 0.33 1.04 0.33 99 1015.4
20260507045159 8 158 1.6 3.2 0.33 1.04 0.33 99 1015.3
20260507045059 8 0 0.0 0.0 0.33 1.04 0.33 99 1015.3
20260507044958 7 0 0.0 0.0 0.33 1.04 0.33 99 1015.2
20260507044759 7 158 0.0 3.2 0.33 1.04 0.33 99 1015.3
20260507044559 7 158 0.0 3.2 0.30 1.02 0.30 99 1015.3
20260507044500 7 158 0.0 3.2 0.30 1.02 0.30 99 1015.2
20260507044359 7 158 0.0 3.2 0.30 1.02 0.30 99 1015.1
20260507044259 7 157 0.0 3.2 0.30 1.02 0.30 99 1015.1
20260507044059 7 154 0.0 3.2 0.30 1.02 0.30 99 1015.3
20260507043958 7 153 0.0 3.2 0.30 1.02 0.30 99 1015.1
20260507043858 7 152 1.6 3.2 0.30 1.02 0.30 99 1015.1
20260507043758 7 153 1.6 3.2 0.30 1.02 0.30 99 1015.2
20260507043658 7 153 1.6 3.2 0.30 1.02 0.30 99 1015.1
20260507043559 7 153 1.6 3.2 0.30 1.02 0.30 99 1015.1
20260507043459 7 152 1.6 3.2 0.30 1.02 0.30 99 1015.1
20260507043359 7 151 1.6 3.2 0.30 1.02 0.30 99 1015.1
20260507043158 7 150 1.6 3.2 0.30 1.02 0.30 99 1015.1
20260507043058 7 154 1.6 3.2 0.30 1.02 0.30 99 1015.1
20260507043000 7 160 1.6 3.2 0.30 1.02 0.30 99 1015.1
20260507042858 7 172 0.0 3.2 0.30 1.02 0.30 99 1015.1
20260507042758 7 181 1.6 3.2 0.30 1.02 0.30 99 1015.0
20260507042659 8 135 3.2 6.4 0.00 0.71 0.00 97 1015.2
20260507042559 8 135 3.2 6.4 0.00 0.71 0.00 97 1015.2
20260507042459 8 135 3.2 6.4 0.00 0.71 0.00 97 1014.9
20260507042358 8 135 3.2 6.4 0.00 0.71 0.00 97 1015.0
20260507042259 8 135 3.2 6.4 0.00 0.71 0.00 97 1015.0
20260507042159 8 135 3.2 6.4 0.00 0.71 0.00 97 1015.1
20260507042059 8 135 3.2 6.4 0.00 0.71 0.00 97 1014.9
20260507041959 8 135 3.2 6.4 0.00 0.71 0.00 97 1015.0
20260507041858 8 135 3.2 6.4 0.00 0.71 0.00 97 1014.8
20260507041758 8 135 3.2 6.4 0.00 0.71 0.00 97 1014.8
20260507041659 8 135 3.2 6.4 0.00 0.71 0.00 97 1014.8
20260507041559 8 135 3.2 6.4 0.00 0.71 0.00 97 1014.9
20260507041501 8 135 3.2 6.4 0.00 0.71 0.00 97 1014.8
20260507041359 8 135 3.2 6.4 0.00 0.71 0.00 97 1014.8
20260507041259 8 135 3.2 6.4 0.00 0.71 0.00 97 1014.7
20260507041159 8 135 3.2 6.4 0.00 0.71 0.00 97 1014.8
20260507041058 8 135 3.2 6.4 0.00 0.71 0.00 97 1014.8
20260507040958 8 135 3.2 6.4 0.00 0.71 0.00 97 1015.0
20260507040859 8 135 3.2 6.4 0.00 0.71 0.00 97 1014.9
20260507040759 8 135 3.2 6.4 0.00 0.71 0.00 97 1014.8
20260507040659 8 135 3.2 6.4 0.00 0.71 0.00 97 1014.9
20260507040559 8 135 3.2 6.4 0.00 0.71 0.00 97 1015.0
20260507040458 8 135 3.2 6.4 0.00 0.71 0.00 97 1014.8
20260507040359 8 135 3.2 6.4 0.00 0.71 0.00 97 1014.8
20260507040259 8 135 3.2 6.4 0.00 0.71 0.00 97 1014.8
20260507040159 8 135 3.2 6.4 0.00 0.71 0.00 97 1014.8
20260507040059 8 135 3.2 6.4 0.00 0.71 0.00 97 1014.6
20260507040000 8 135 3.2 6.4 0.00 0.71 0.00 97 1015.0
20260507035859 8 135 3.2 6.4 0.00 0.71 0.00 97 1014.8
20260507035758 8 135 3.2 6.4 0.00 0.71 0.00 97 1014.6
20260507035558 8 135 3.2 6.4 0.00 0.71 0.00 97 1014.7
20260507035459 8 135 3.2 6.4 0.00 0.71 0.00 97 1014.8
20260507035359 8 135 3.2 6.4 0.00 0.71 0.00 97 1014.7
20260507035259 8 135 3.2 6.4 0.00 0.71 0.00 97 1014.7
20260507035159 8 135 3.2 6.4 0.00 0.71 0.00 97 1014.8
20260507034959 8 135 3.2 6.4 0.00 0.71 0.00 97 1014.7
20260507034758 8 135 3.2 6.4 0.00 0.71 0.00 97 1014.9
20260507034559 8 135 3.2 6.4 0.00 0.71 0.00 97 1014.7
20260507034500 8 135 3.2 6.4 0.00 0.71 0.00 97 1014.9
20260507034358 8 135 3.2 6.4 0.00 0.71 0.00 97 1014.8
20260507034058 8 135 3.2 6.4 0.00 0.71 0.00 97 1014.6
20260507033959 8 135 3.2 6.4 0.00 0.71 0.00 97 1014.7
20260507033859 8 135 3.2 6.4 0.00 0.71 0.00 97 1014.7
20260507033759 8 135 3.2 6.4 0.00 0.71 0.00 97 1014.7
20260507033659 8 135 3.2 6.4 0.00 0.71 0.00 97 1014.8
20260507033459 8 135 3.2 6.4 0.00 0.71 0.00 97 1014.6
20260507033359 8 135 3.2 6.4 0.00 0.71 0.00 97 1014.7
20260507033259 8 135 3.2 6.4 0.00 0.71 0.00 97 1014.7
20260507033159 8 135 3.2 6.4 0.00 0.71 0.00 97 1014.6
20260507033001 8 135 3.2 6.4 0.00 0.71 0.00 97 1014.7
20260507032859 8 135 3.2 6.4 0.00 0.71 0.00 97 1014.5
20260507032759 8 135 3.2 6.4 0.00 0.71 0.00 97 1014.8
20260507032659 8 135 3.2 6.4 0.00 0.71 0.00 97 1014.6
20260507032558 8 135 3.2 6.4 0.00 0.71 0.00 97 1014.6
20260507032459 8 135 3.2 6.4 0.00 0.71 0.00 97 1014.8
20260507032359 8 135 3.2 6.4 0.00 0.71 0.00 97 1014.4
20260507032259 8 135 3.2 6.4 0.00 0.71 0.00 97 1014.7
20260507032159 8 135 3.2 6.4 0.00 0.71 0.00 97 1014.8
20260507032059 8 135 3.2 6.4 0.00 0.71 0.00 97 1014.6
20260507031959 8 135 3.2 6.4 0.00 0.71 0.00 97 1014.4
20260507031859 8 135 3.2 6.4 0.00 0.71 0.00 97 1014.5
20260507031759 8 135 3.2 6.4 0.00 0.71 0.00 97 1014.6
20260507031659 8 135 3.2 6.4 0.00 0.71 0.00 97 1014.6
20260507031559 8 135 3.2 6.4 0.00 0.71 0.00 97 1014.5
20260507031500 8 135 3.2 6.4 0.00 0.71 0.00 97 1014.4
20260507031359 8 135 3.2 6.4 0.00 0.71 0.00 97 1014.5
20260507031159 8 135 3.2 6.4 0.00 0.71 0.00 97 1014.6
20260507030959 8 135 3.2 6.4 0.00 0.71 0.00 97 1014.5
20260507030758 8 135 3.2 6.4 0.00 0.71 0.00 97 1014.3
20260507030658 8 135 3.2 6.4 0.00 0.71 0.00 97 1014.6
20260507030559 8 135 3.2 6.4 0.00 0.71 0.00 97 1014.5
20260507030459 8 135 3.2 6.4 0.00 0.71 0.00 97 1014.4
20260507030359 8 135 3.2 6.4 0.00 0.71 0.00 97 1014.4
20260507030258 8 135 3.2 6.4 0.00 0.71 0.00 97 1014.2
20260507030159 8 135 3.2 6.4 0.00 0.71 0.00 97 1014.3
20260507030059 8 135 3.2 6.4 0.00 0.71 0.00 97 1014.3
20260507030001 8 135 3.2 6.4 0.00 0.71 0.00 97 1014.5
20260507025859 8 135 3.2 6.4 0.00 0.71 0.00 97 1014.6
20260507025559 8 135 3.2 6.4 0.00 0.71 0.00 97 1014.2
20260507025358 8 135 3.2 6.4 0.00 0.71 0.00 97 1014.5
20260507025259 8 135 3.2 6.4 0.00 0.71 0.00 97 1014.4
20260507025159 8 135 3.2 6.4 0.00 0.71 0.00 97 1014.6
20260507025059 8 135 3.2 6.4 0.00 0.71 0.00 97 1014.3
20260507024959 8 135 3.2 6.4 0.00 0.71 0.00 97 1014.3
20260507024859 8 135 3.2 6.4 0.00 0.71 0.00 97 1014.2
20260507024759 8 135 3.2 6.4 0.00 0.71 0.00 97 1014.3
20260507024559 8 135 3.2 6.4 0.00 0.71 0.00 97 1014.4
20260507024501 8 135 3.2 6.4 0.00 0.71 0.00 97 1014.3
20260507024359 8 135 3.2 6.4 0.00 0.71 0.00 97 1014.3
20260507024259 8 135 3.2 6.4 0.00 0.71 0.00 97 1014.5
20260507024158 8 135 3.2 6.4 0.00 0.71 0.00 97 1014.5
20260507024058 8 135 3.2 6.4 0.00 0.71 0.00 97 1014.3
20260507023859 8 135 3.2 6.4 0.00 0.71 0.00 97 1014.2
20260507023759 8 135 3.2 6.4 0.00 0.71 0.00 97 1014.2
20260507023659 8 135 3.2 6.4 0.00 0.71 0.00 97 1014.3
20260507023558 8 135 3.2 6.4 0.00 0.71 0.00 97 1014.3
20260507023459 8 135 3.2 6.4 0.00 0.71 0.00 97 1014.1
20260507023359 8 135 3.2 6.4 0.00 0.71 0.00 97 1014.4
20260507023259 8 135 3.2 6.4 0.00 0.71 0.00 97 1014.2
20260507023158 8 135 3.2 6.4 0.00 0.71 0.00 97 1014.0
20260507023059 8 135 3.2 6.4 0.00 0.71 0.00 97 1014.4
20260507023000 8 135 3.2 6.4 0.00 0.71 0.00 97 1014.2
20260507022859 8 135 3.2 6.4 0.00 0.71 0.00 97 1014.2
20260507022759 8 135 3.2 6.4 0.00 0.71 0.00 97 1014.1
20260507022659 8 135 3.2 6.4 0.00 0.71 0.00 97 1014.1
20260507022559 8 135 3.2 6.4 0.00 0.71 0.00 97 1014.1
20260507022459 8 135 3.2 6.4 0.00 0.71 0.00 97 1014.2
20260507022358 8 135 3.2 6.4 0.00 0.71 0.00 97 1014.1
20260507022259 8 135 3.2 6.4 0.00 0.71 0.00 97 1014.1
20260507022159 8 135 3.2 6.4 0.00 0.71 0.00 97 1014.1
20260507022059 8 135 3.2 6.4 0.00 0.71 0.00 97 1014.1
20260507021859 8 135 3.2 6.4 0.00 0.71 0.00 97 1014.3
20260507021759 8 135 3.2 6.4 0.00 0.71 0.00 97 1014.1
20260507021659 8 135 3.2 6.4 0.00 0.71 0.00 97 1014.0
20260507021558 8 135 3.2 6.4 0.00 0.71 0.00 97 1013.9
20260507021500 8 135 3.2 6.4 0.00 0.71 0.00 97 1013.9
20260507021359 8 135 3.2 6.4 0.00 0.71 0.00 97 1014.0
20260507021258 8 135 3.2 6.4 0.00 0.71 0.00 97 1014.0
20260507021159 8 135 3.2 6.4 0.00 0.71 0.00 97 1014.1
20260507021059 8 135 3.2 6.4 0.00 0.71 0.00 97 1014.0
20260507020959 8 135 3.2 6.4 0.00 0.71 0.00 97 1013.8
20260507020858 8 135 3.2 6.4 0.00 0.71 0.00 97 1014.0
20260507020759 8 135 3.2 6.4 0.00 0.71 0.00 97 1014.1
20260507020659 8 135 3.2 6.4 0.00 0.71 0.00 97 1013.8
20260507020559 8 135 3.2 6.4 0.00 0.71 0.00 97 1014.1
20260507020459 8 135 3.2 6.4 0.00 0.71 0.00 97 1014.0
20260507020258 8 135 3.2 6.4 0.00 0.71 0.00 97 1014.1
20260507020159 8 135 3.2 6.4 0.00 0.71 0.00 97 1014.1
20260507020059 8 135 3.2 6.4 0.00 0.71 0.00 97 1013.9
20260507020001 8 135 3.2 6.4 0.00 0.71 0.00 97 1013.8
20260507015859 8 135 3.2 6.4 0.00 0.71 0.00 97 1013.8
20260507015759 8 135 3.2 6.4 0.00 0.71 0.00 97 1014.1
20260507015659 8 135 3.2 6.4 0.00 0.71 0.00 97 1014.0
20260507015559 8 135 3.2 6.4 0.00 0.71 0.00 97 1014.0
20260507015459 8 135 3.2 6.4 0.00 0.71 0.00 97 1013.8
20260507015259 8 135 3.2 6.4 0.00 0.71 0.00 97 1013.8
20260507015059 8 135 3.2 6.4 0.00 0.71 0.00 97 1014.1
20260507014958 8 135 3.2 6.4 0.00 0.00 0.00 97 1014.0
20260507014858 8 135 3.2 6.4 0.00 0.00 0.00 97 1014.0
20260507014759 8 135 3.2 6.4 0.00 0.00 0.00 97 1014.0
20260507014359 8 135 3.2 6.4 0.00 0.00 0.00 97 1014.1
20260507014259 8 135 3.2 6.4 0.00 0.71 0.00 97 1013.8
20260507014159 8 135 3.2 6.4 0.00 0.71 0.00 97 1013.8
20260507013959 8 135 3.2 6.4 0.00 0.71 0.00 97 1014.0
20260507013858 8 135 3.2 6.4 0.00 0.71 0.00 97 1013.9
20260507013759 8 135 3.2 6.4 0.00 0.71 0.00 97 1013.8
20260507013659 8 135 3.2 6.4 0.00 0.71 0.00 97 1013.9
20260507013559 8 135 3.2 6.4 0.00 0.71 0.00 97 1013.8
20260507013458 8 135 3.2 6.4 0.00 0.71 0.00 97 1013.9
20260507013359 8 135 3.2 6.4 0.00 0.71 0.00 97 1013.9
20260507013259 8 135 3.2 6.4 0.00 0.71 0.00 97 1014.0
20260507013059 8 135 3.2 6.4 0.00 0.71 0.00 97 1013.8
20260507013001 8 135 3.2 6.4 0.00 0.71 0.00 97 1014.0
20260507012859 8 135 3.2 6.4 0.00 0.71 0.00 97 1013.7
20260507012758 8 135 3.2 6.4 0.00 0.71 0.00 97 1013.8
20260507012659 8 135 3.2 6.4 0.00 0.71 0.00 97 1014.0
20260507012559 8 135 3.2 6.4 0.00 0.71 0.00 97 1013.7
20260507012459 8 135 3.2 6.4 0.00 0.71 0.00 97 1013.7
20260507012400 8 135 3.2 6.4 0.00 0.71 0.00 97 1013.8
20260507012259 8 135 3.2 6.4 0.00 0.71 0.00 97 1013.8
20260507012159 8 135 3.2 6.4 0.00 0.71 0.00 97 1013.8
20260507012059 8 135 3.2 6.4 0.00 0.71 0.00 97 1013.7
20260507011958 8 135 3.2 6.4 0.00 0.71 0.00 97 1013.8
20260507011859 8 135 3.2 6.4 0.00 0.71 0.00 97 1013.7
20260507011759 8 135 3.2 6.4 0.00 0.71 0.00 97 1013.6
20260507011600 8 135 3.2 6.4 0.00 0.71 0.00 97 1013.8
20260507011500 8 135 3.2 6.4 0.00 0.71 0.00 97 1013.8
20260507011359 8 135 3.2 6.4 0.00 0.71 0.00 97 1013.6
20260507011259 8 135 3.2 6.4 0.00 0.71 0.00 97 1013.8
20260507011159 8 135 3.2 6.4 0.00 0.71 0.00 97 1013.7
20260507011059 8 135 3.2 6.4 0.00 0.71 0.00 97 1013.6
20260507010758 8 135 3.2 6.4 0.00 0.71 0.00 97 1013.7
20260507010659 8 135 3.2 6.4 0.00 0.71 0.00 97 1013.8
20260507010559 8 135 3.2 6.4 0.00 0.71 0.00 97 1013.7
20260507010459 8 135 3.2 6.4 0.00 0.71 0.00 97 1014.0
20260507010359 8 135 3.2 6.4 0.00 0.71 0.00 97 1013.8
20260507010259 8 135 3.2 6.4 0.00 0.71 0.00 97 1013.9
20260507010159 8 135 3.2 6.4 0.00 0.71 0.00 97 1013.7
20260507010059 8 135 3.2 6.4 0.00 0.71 0.00 97 1013.7
20260507005859 8 135 3.2 6.4 0.00 0.71 0.00 97 1013.7
20260507005759 8 135 3.2 6.4 0.00 0.71 0.00 97 1013.7
20260507005559 8 135 3.2 6.4 0.00 0.71 0.00 97 1013.8
20260507005459 8 135 3.2 6.4 0.00 0.71 0.00 97 1013.8
20260507005359 8 135 3.2 6.4 0.00 0.71 0.00 97 1013.5
20260507005159 8 135 3.2 6.4 0.00 0.71 0.00 97 1013.8
20260507005059 8 135 3.2 6.4 0.00 0.71 0.00 97 1013.5
20260507004959 8 135 3.2 6.4 0.00 0.71 0.00 97 1013.7
20260507004859 8 135 3.2 6.4 0.00 0.71 0.00 97 1013.7
20260507004658 8 135 3.2 6.4 0.00 0.71 0.00 97 1013.7
20260507004559 8 135 3.2 6.4 0.00 0.71 0.00 97 1013.5
20260507004501 8 135 3.2 6.4 0.00 0.71 0.00 97 1013.4
20260507004359 8 135 3.2 6.4 0.00 0.71 0.00 97 1013.4
20260507004159 8 135 3.2 6.4 0.00 0.71 0.00 97 1013.7
20260507004059 8 135 3.2 6.4 0.00 0.71 0.00 97 1013.6
20260507003859 8 135 3.2 6.4 0.00 0.71 0.00 97 1013.6
20260507003800 8 135 3.2 6.4 0.00 0.71 0.00 97 1013.4
20260507003659 8 135 3.2 6.4 0.00 0.71 0.00 97 1013.6
20260507003559 8 135 3.2 6.4 0.00 0.71 0.00 97 1013.5
20260507003459 8 135 3.2 6.4 0.00 0.71 0.00 97 1013.5
20260507003259 8 135 3.2 6.4 0.00 0.71 0.00 97 1013.4
20260507003159 8 135 3.2 6.4 0.00 0.71 0.00 97 1013.4
20260507003059 8 135 3.2 6.4 0.00 0.71 0.00 97 1013.5
20260507003000 8 135 3.2 6.4 0.00 0.71 0.00 97 1013.5
20260507002859 8 135 3.2 6.4 0.00 0.71 0.00 97 1013.4
20260507002558 8 135 3.2 6.4 0.00 0.71 0.00 97 1013.6
20260507002259 8 135 3.2 6.4 0.00 0.71 0.00 97 1013.5
20260507002059 8 135 3.2 6.4 0.00 0.71 0.00 97 1013.5
20260507001959 8 135 3.2 6.4 0.00 0.71 0.00 97 1013.5
20260507001859 8 135 3.2 6.4 0.00 0.71 0.00 97 1013.6
20260507001659 8 135 3.2 6.4 0.00 0.71 0.00 97 1013.6
20260507001559 8 135 3.2 6.4 0.00 0.71 0.00 97 1013.6
20260507001501 8 135 3.2 6.4 0.00 0.71 0.00 97 1013.4
20260507001359 8 135 3.2 6.4 0.00 0.71 0.00 97 1013.6
20260507001059 8 135 3.2 6.4 0.00 0.71 0.00 97 1013.5
20260507000959 8 135 3.2 6.4 0.00 0.71 0.00 97 1013.7
20260507000858 8 135 3.2 6.4 0.00 0.71 0.00 97 1013.8
20260507000659 8 135 3.2 6.4 0.00 0.71 0.00 97 1013.7
20260507000559 8 135 3.2 6.4 0.00 0.71 0.00 97 1013.7
20260507000459 8 135 3.2 6.4 0.00 0.71 0.00 97 1013.5
20260507000400 8 135 3.2 6.4 0.00 0.71 0.00 97 1013.8
20260507000259 8 135 3.2 6.4 0.00 0.71 0.00 97 1013.7
20260507000059 8 135 3.2 6.4 0.00 0.71 0.00 97 1013.7
20260506235859 8 135 3.2 6.4 0.00 0.71 0.00 97 1013.6
20260506235759 8 135 3.2 6.4 0.00 0.71 0.00 97 1013.6
20260506235659 8 135 3.2 6.4 0.00 0.71 0.00 97 1013.7
20260506235559 8 135 3.2 6.4 0.00 0.71 0.00 97 1013.5
20260506235459 8 135 3.2 6.4 0.00 0.71 0.00 97 1013.5
20260506235259 8 135 3.2 6.4 0.00 0.71 0.00 97 1013.7
20260506235059 8 135 3.2 6.4 0.00 0.71 0.00 97 1013.8
20260506234959 8 135 3.2 6.4 0.00 0.71 0.00 97 1013.6
20260506234859 8 135 3.2 6.4 0.00 0.71 0.00 97 1013.7
20260506234759 8 135 3.2 6.4 0.00 0.71 0.00 97 1013.7
20260506234659 8 135 3.2 6.4 0.00 0.71 0.00 97 1013.5
20260506234559 8 135 3.2 6.4 0.00 0.71 0.00 97 1013.5
20260506234501 8 135 3.2 6.4 0.00 0.71 0.00 97 1013.5
20260506234359 8 135 3.2 6.4 0.00 0.71 0.00 97 1013.7
20260506234259 8 135 3.2 6.4 0.00 0.71 0.00 97 1013.6
20260506234159 8 135 3.2 6.4 0.00 0.71 0.00 97 1013.5
20260506234059 8 135 3.2 6.4 0.00 0.71 0.00 97 1013.3
20260506233959 8 135 3.2 6.4 0.00 0.71 0.00 97 1013.5
20260506233859 8 135 3.2 6.4 0.00 0.71 0.00 97 1013.8
20260506233759 8 135 3.2 6.4 0.00 0.71 0.00 97 1013.4
20260506233659 8 135 3.2 6.4 0.00 0.71 0.00 97 1013.5
20260506233559 8 135 3.2 6.4 0.00 0.71 0.00 97 1013.4
20260506233300 8 135 3.2 6.4 0.00 0.71 0.00 97 1013.6
20260506233159 8 135 3.2 6.4 0.00 0.71 0.00 97 1013.6
20260506233059 8 135 3.2 6.4 0.00 0.71 0.00 97 1013.7
20260506233001 8 135 3.2 6.4 0.00 0.71 0.00 97 1013.7
20260506232759 8 135 3.2 6.4 0.00 0.71 0.00 97 1013.5
20260506232700 8 135 3.2 6.4 0.00 0.71 0.00 97 1013.7
20260506232559 8 135 3.2 6.4 0.00 0.71 0.00 97 1013.8
20260506232459 8 135 3.2 6.4 0.00 0.71 0.00 97 1013.7
20260506232359 8 135 3.2 6.4 0.00 0.71 0.00 97 1013.7
20260506232300 8 135 3.2 6.4 0.00 0.71 0.00 97 1013.6
20260506232159 8 135 3.2 6.4 0.00 0.71 0.00 97 1013.6
20260506231959 8 135 3.2 6.4 0.00 0.71 0.00 97 1013.7
20260506231859 8 135 3.2 6.4 0.00 0.71 0.00 97 1013.4
20260506231759 8 135 3.2 6.4 0.00 0.71 0.00 97 1013.6
20260506231659 8 135 3.2 6.4 0.00 0.71 0.00 97 1013.4
20260506231500 8 135 3.2 6.4 0.00 0.71 0.00 97 1013.6
20260506231359 8 135 3.2 6.4 0.00 0.71 0.00 97 1013.6
20260506231259 8 135 3.2 6.4 0.00 0.71 0.00 97 1013.6
20260506231159 8 135 3.2 6.4 0.00 0.71 0.00 97 1013.5
20260506231059 8 135 3.2 6.4 0.00 0.71 0.00 97 1013.6
20260506230959 8 135 3.2 6.4 0.00 0.71 0.00 97 1013.6
20260506230859 8 135 3.2 6.4 0.00 0.71 0.00 97 1013.7
20260506230759 8 135 3.2 6.4 0.00 0.71 0.00 97 1013.6
20260506230559 8 135 3.2 6.4 0.00 0.71 0.00 97 1013.7
20260506230459 8 135 3.2 6.4 0.00 0.71 0.00 97 1013.7
20260506230359 8 135 3.2 6.4 0.00 0.71 0.00 97 1013.6
20260506230300 8 135 3.2 6.4 0.00 0.71 0.00 97 1013.7
20260506230159 8 135 3.2 6.4 0.00 0.71 0.00 97 1013.7
20260506230059 8 135 3.2 6.4 0.00 0.71 0.00 97 1013.6
20260506230001 8 135 3.2 6.4 0.00 0.71 0.00 97 1013.6
20260506225859 8 135 3.2 6.4 0.00 0.71 0.00 97 1013.5
20260506225559 8 135 3.2 6.4 0.00 0.71 0.00 97 1013.7
20260506225459 8 135 3.2 6.4 0.00 0.71 0.00 97 1013.9
20260506225359 8 135 3.2 6.4 0.00 0.71 0.00 97 1013.8
20260506225259 8 135 3.2 6.4 0.00 0.71 0.00 97 1013.8
20260506225159 8 135 3.2 6.4 0.00 0.71 0.00 97 1013.8
20260506225059 8 135 3.2 6.4 0.00 0.71 0.00 97 1013.9
20260506224959 8 135 3.2 6.4 0.00 0.71 0.00 97 1013.8
20260506224859 8 135 3.2 6.4 0.00 0.71 0.00 97 1013.8
20260506224659 8 135 3.2 6.4 0.00 0.71 0.00 97 1014.1
20260506224600 8 135 3.2 6.4 0.00 0.71 0.00 97 1013.9
20260506224501 8 135 3.2 6.4 0.00 0.71 0.00 97 1013.9
20260506224359 8 135 3.2 6.4 0.00 0.71 0.00 97 1013.8
20260506224258 8 135 3.2 6.4 0.00 0.71 0.00 97 1014.0
20260506224159 8 135 3.2 6.4 0.00 0.71 0.00 97 1013.8
20260506224059 8 135 3.2 6.4 0.00 0.71 0.00 97 1013.8
20260506223959 8 135 3.2 6.4 0.00 0.71 0.00 97 1013.8
20260506223759 8 135 3.2 6.4 0.00 0.71 0.00 97 1013.9
20260506223700 8 135 3.2 6.4 0.00 0.71 0.00 97 1013.9
20260506223559 8 135 3.2 6.4 0.00 0.71 0.00 97 1013.7
20260506223459 8 135 3.2 6.4 0.00 0.71 0.00 97 1013.7
20260506223259 8 135 3.2 6.4 0.00 0.71 0.00 97 1013.9
20260506223059 8 135 3.2 6.4 0.00 0.71 0.00 97 1013.8
20260506223000 8 135 3.2 6.4 0.00 0.71 0.00 97 1013.9
20260506222900 8 135 3.2 6.4 0.00 0.71 0.00 97 1013.8
20260506222759 8 135 3.2 6.4 0.00 0.71 0.00 97 1014.0
20260506222659 8 135 3.2 6.4 0.00 0.71 0.00 97 1013.8
20260506222559 8 135 3.2 6.4 0.00 0.71 0.00 97 1013.8
20260506222359 8 135 3.2 6.4 0.00 0.71 0.00 97 1013.7
20260506222159 8 135 3.2 6.4 0.00 0.71 0.00 97 1013.7
20260506222059 8 135 3.2 6.4 0.00 0.71 0.00 97 1013.8
20260506221959 8 135 3.2 6.4 0.00 0.71 0.00 97 1013.7
20260506221859 8 135 3.2 6.4 0.00 0.71 0.00 97 1013.7
20260506221759 8 135 3.2 6.4 0.00 0.71 0.00 97 1013.7
20260506221700 8 135 3.2 6.4 0.00 0.71 0.00 97 1013.8
20260506221559 8 135 3.2 6.4 0.00 0.71 0.00 97 1013.8
20260506221501 8 135 3.2 6.4 0.00 0.71 0.00 97 1013.7
20260506221359 8 135 3.2 6.4 0.00 0.71 0.00 97 1013.7
20260506221259 8 135 3.2 6.4 0.00 0.71 0.00 97 1013.5
20260506221159 8 135 3.2 6.4 0.00 0.71 0.00 97 1013.7
20260506221059 8 135 3.2 6.4 0.00 0.71 0.00 97 1013.5
20260506220959 8 135 3.2 6.4 0.00 0.71 0.00 97 1013.5
20260506220859 8 135 3.2 6.4 0.00 0.71 0.00 97 1013.6
20260506220759 8 135 3.2 6.4 0.00 0.71 0.00 97 1013.5
20260506220659 8 135 3.2 6.4 0.00 0.71 0.00 97 1013.8
20260506220559 8 135 3.2 6.4 0.00 0.71 0.00 97 1013.5
20260506220459 8 135 3.2 6.4 0.00 0.71 0.00 97 1013.4
20260506220359 8 135 3.2 6.4 0.00 0.71 0.00 97 1013.7
20260506220259 8 135 3.2 6.4 0.00 0.71 0.00 97 1013.6
20260506220159 8 135 3.2 6.4 0.00 0.71 0.00 97 1013.6
20260506220059 8 135 3.2 6.4 0.00 0.71 0.00 97 1013.5
20260506220001 8 135 3.2 6.4 0.00 0.71 0.00 97 1013.3
20260506215900 8 135 3.2 6.4 0.00 0.71 0.71 97 1013.7
20260506215759 8 135 3.2 6.4 0.00 0.71 0.71 97 1013.5
20260506215659 8 135 3.2 6.4 0.00 0.71 0.71 97 1013.5
20260506215559 8 135 3.2 6.4 0.00 0.71 0.71 97 1013.5
20260506215459 8 135 3.2 6.4 0.00 0.71 0.71 97 1013.5
20260506215359 8 135 3.2 6.4 0.00 0.71 0.71 97 1013.4
20260506215259 8 135 3.2 6.4 0.00 0.71 0.71 97 1013.3
20260506215059 8 135 3.2 6.4 0.00 0.71 0.71 97 1013.3
20260506214959 8 135 3.2 6.4 0.00 0.71 0.71 97 1013.3
20260506214859 8 135 3.2 6.4 0.00 0.71 0.71 97 1013.4
20260506214759 8 135 3.2 6.4 0.00 0.71 0.71 97 1013.4
20260506214500 8 135 3.2 6.4 0.00 0.71 0.71 97 1013.6
20260506214400 8 135 3.2 6.4 0.00 0.71 0.71 97 1013.4
20260506214059 8 135 3.2 6.4 0.00 0.71 0.71 97 1013.5
20260506213959 8 135 3.2 6.4 0.00 0.71 0.71 97 1013.4
20260506213859 8 135 3.2 6.4 0.00 0.71 0.71 97 1013.4
20260506213659 8 135 3.2 6.4 0.00 0.71 0.71 97 1013.3
20260506213559 8 135 3.2 6.4 0.00 0.71 0.71 97 1013.3
20260506213459 8 135 3.2 6.4 0.00 0.71 0.71 97 1013.3
20260506213359 8 135 3.2 6.4 0.00 0.71 0.71 97 1013.4
20260506213259 8 135 3.2 6.4 0.00 0.71 0.71 97 1013.4
20260506213159 8 135 3.2 6.4 0.00 0.71 0.71 97 1013.4
20260506213059 8 135 3.2 6.4 0.00 0.71 0.71 97 1013.4
20260506213000 8 135 3.2 6.4 0.00 0.71 0.71 97 1013.4
20260506212900 8 135 3.2 6.4 0.00 0.71 0.71 97 1013.3
20260506212759 8 135 3.2 6.4 0.00 0.71 0.71 97 1013.3
20260506212659 8 135 3.2 6.4 0.00 0.71 0.71 97 1013.3
20260506212559 8 135 3.2 6.4 0.00 0.71 0.71 97 1013.3
20260506212459 8 138 3.2 6.4 0.00 0.71 0.71 97 1013.3
20260506212400 8 142 3.2 6.4 0.00 0.71 0.71 97 1013.3
20260506212259 8 147 3.2 6.4 0.00 0.71 0.71 97 1013.3
20260506212159 8 150 3.2 6.4 0.00 0.71 0.71 97 1013.3
20260506212059 8 155 3.2 6.4 0.00 0.71 0.71 97 1013.3
20260506211959 8 159 3.2 6.4 0.00 0.71 0.71 97 1013.2
20260506211900 8 165 3.2 6.4 0.00 0.71 0.71 97 1013.2
20260506211759 8 169 3.2 6.4 0.00 0.71 0.71 97 1013.3
20260506211559 8 178 3.2 6.4 0.00 0.71 0.71 97 1013.2
20260506211501 8 176 3.2 6.4 0.00 0.71 0.71 97 1013.1
20260506211259 8 173 3.2 6.4 0.00 0.71 0.71 97 1013.2
20260506211159 8 171 3.2 6.4 0.00 0.71 0.71 97 1013.2
20260506211059 8 168 3.2 6.4 0.00 0.71 0.71 97 1013.1
20260506210959 8 165 3.2 6.4 0.00 0.71 0.71 97 1013.0
20260506210759 8 156 1.6 6.4 0.00 0.71 0.71 97 1013.3
20260506210659 8 151 3.2 9.7 0.00 0.71 0.71 97 1013.2
20260506210459 8 146 3.2 9.7 0.00 0.71 0.71 97 1013.1
20260506210359 8 143 3.2 9.7 0.00 0.71 0.71 97 1013.1
20260506210259 8 141 3.2 9.7 0.00 0.71 0.71 97 1013.2
20260506210159 8 139 3.2 9.7 0.00 0.71 0.71 97 1013.1
20260506210100 8 137 1.6 9.7 0.00 0.71 0.71 97 1013.2
20260506210001 8 138 3.2 9.7 0.00 0.71 0.71 97 1013.1
20260506205859 8 142 3.2 9.7 0.00 0.71 0.71 97 1013.1
20260506205759 8 145 3.2 9.7 0.00 0.71 0.71 97 1013.0
20260506205659 8 150 1.6 6.4 0.00 0.71 0.71 97 1013.0
20260506205559 8 148 1.6 9.7 0.00 0.71 0.71 97 1012.9
20260506205500 8 149 1.6 9.7 0.00 0.71 0.71 97 1013.1
20260506205259 8 147 1.6 9.7 0.00 0.71 0.71 97 1013.2
20260506205059 8 154 1.6 9.7 0.00 0.71 0.71 97 1013.2
20260506204959 8 157 3.2 9.7 0.00 0.71 0.71 97 1013.2
20260506204900 8 156 0.0 9.7 0.00 0.71 0.71 97 1013.2
20260506204659 8 150 3.2 11.3 0.00 0.71 0.71 97 1013.1
20260506204559 8 153 6.4 11.3 0.00 0.71 0.71 97 1013.2
20260506204501 8 150 1.6 11.3 0.00 0.71 0.71 97 1013.1
20260506204359 8 148 1.6 11.3 0.00 0.71 0.71 97 1013.1
20260506204259 8 146 3.2 11.3 0.00 0.71 0.71 97 1013.1
20260506204159 8 146 1.6 11.3 0.00 0.71 0.71 97 1013.1
20260506204100 8 143 3.2 11.3 0.00 0.71 0.71 97 1013.2
20260506203959 8 139 3.2 11.3 0.00 0.71 0.71 97 1013.2
20260506203859 8 140 0.0 11.3 0.03 0.71 0.71 97 1013.4
20260506203659 8 145 3.2 9.7 0.03 0.71 0.71 97 1013.3
20260506203559 8 136 4.8 9.7 0.03 0.71 0.71 97 1013.1
20260506203500 8 133 3.2 9.7 0.03 0.71 0.71 97 1013.1
20260506203259 8 144 3.2 9.7 0.03 0.71 0.71 97 1013.0
20260506203159 8 144 3.2 12.9 0.03 0.71 0.71 97 1012.9
20260506203059 8 142 3.2 12.9 0.03 0.71 0.71 97 1012.9
20260506203001 8 145 3.2 12.9 0.03 0.71 0.71 97 1013.1
20260506202759 8 140 0.0 12.9 0.03 0.71 0.71 97 1013.2
20260506202659 8 141 3.2 12.9 0.03 0.71 0.71 97 1013.1
20260506202559 8 142 3.2 12.9 0.03 0.71 0.71 97 1013.2
20260506202459 8 145 3.2 12.9 0.03 0.71 0.71 97 1012.8
20260506202359 8 143 3.2 12.9 0.03 0.71 0.71 97 1013.0
20260506202159 8 137 6.4 12.9 0.03 0.71 0.71 97 1013.2
20260506202059 8 133 3.2 12.9 0.03 0.71 0.71 97 1013.2
20260506202000 8 125 3.2 12.9 0.03 0.71 0.71 97 1013.2
20260506201859 8 119 0.0 12.9 0.03 0.71 0.71 98 1013.1
20260506201759 8 118 3.2 12.9 0.03 0.71 0.71 97 1013.0
20260506201659 8 115 3.2 12.9 0.03 0.71 0.71 97 1012.9
20260506201600 8 122 1.6 14.5 0.03 0.71 0.71 97 1012.9
20260506201501 8 119 0.0 14.5 0.03 0.71 0.71 97 1013.0
20260506201359 8 117 0.0 14.5 0.03 0.71 0.71 97 1012.9
20260506201259 8 119 3.2 14.5 0.03 0.71 0.71 97 1013.0
20260506201159 8 121 3.2 14.5 0.03 0.71 0.71 97 1013.1
20260506201059 8 123 3.2 14.5 0.03 0.71 0.71 97 1013.0
20260506200959 8 124 1.6 14.5 0.03 0.71 0.71 97 1013.1
20260506200859 8 127 1.6 14.5 0.03 0.71 0.71 97 1013.1
20260506200800 8 127 1.6 14.5 0.03 0.71 0.71 98 1013.1
20260506200659 8 124 6.4 14.5 0.03 0.71 0.71 97 1012.8
20260506200559 8 120 3.2 6.4 0.03 0.71 0.71 97 1013.0
20260506200459 8 124 3.2 6.4 0.03 0.71 0.71 98 1012.8
20260506200359 8 126 3.2 6.4 0.03 0.71 0.71 97 1012.8
20260506200300 8 130 1.6 9.7 0.03 0.71 0.71 97 1012.9
20260506200200 8 135 0.0 11.3 0.03 0.71 0.71 97 1012.8
20260506195900 8 151 0.0 11.3 0.03 0.71 0.71 97 1013.0
20260506195759 8 155 0.0 11.3 0.03 0.71 0.71 97 1012.8
20260506195659 8 152 0.0 11.3 0.03 0.71 0.71 97 1012.8
20260506195559 8 147 0.0 11.3 0.03 0.71 0.71 97 1012.7
20260506195459 8 148 3.2 11.3 0.03 0.71 0.71 97 1012.6
20260506195359 8 148 4.8 11.3 0.05 0.71 0.71 97 1012.6
20260506195300 8 150 3.2 11.3 0.05 0.71 0.71 97 1012.8
20260506195159 8 149 6.4 11.3 0.05 0.71 0.71 97 1012.8
20260506195059 8 147 6.4 9.7 0.05 0.71 0.71 97 1012.6
20260506194959 8 145 1.6 9.7 0.05 0.71 0.71 98 1012.7
20260506194859 8 144 3.2 9.7 0.05 0.71 0.71 97 1013.0
20260506194501 8 146 1.6 14.5 0.05 0.71 0.71 97 1012.9
20260506194400 8 144 3.2 14.5 0.05 0.71 0.71 97 1012.9
20260506194259 8 145 1.6 14.5 0.05 0.71 0.71 97 1012.9
20260506194159 8 145 3.2 14.5 0.10 0.71 0.71 97 1012.8
20260506194059 8 142 3.2 14.5 0.10 0.71 0.71 97 1012.8
20260506193959 8 141 3.2 14.5 0.10 0.71 0.71 97 1012.8
20260506193900 8 139 1.6 14.5 0.05 0.69 0.69 97 1012.8
20260506193659 8 139 4.8 14.5 0.05 0.69 0.69 97 1012.8
20260506193559 8 144 6.4 14.5 0.05 0.69 0.69 97 1012.7
20260506193459 8 145 3.2 12.9 0.10 0.69 0.69 97 1012.8
20260506193359 8 148 6.4 12.9 0.10 0.69 0.69 97 1012.5
20260506193300 8 147 3.2 11.3 0.10 0.69 0.69 97 1012.5
20260506193059 8 148 1.6 11.3 0.10 0.69 0.69 97 1012.6
20260506192900 8 151 1.6 11.3 0.10 0.69 0.69 97 1012.6
20260506192759 8 156 4.8 11.3 0.10 0.69 0.69 97 1012.5
20260506192700 8 159 6.4 11.3 0.10 0.69 0.69 97 1012.4
20260506192559 8 159 6.4 11.3 0.10 0.69 0.69 97 1012.6
20260506192459 8 163 3.2 11.3 0.13 0.69 0.69 97 1012.5
20260506192359 8 166 3.2 11.3 0.13 0.69 0.69 97 1012.4
20260506192259 8 165 1.6 11.3 0.13 0.69 0.69 97 1012.8
20260506192200 8 166 6.4 11.3 0.13 0.69 0.69 97 1012.5
20260506192059 8 165 3.2 11.3 0.13 0.69 0.69 97 1012.4
20260506191959 8 166 6.4 11.3 0.13 0.69 0.69 97 1012.4
20260506191859 8 166 6.4 11.3 0.13 0.69 0.69 97 1012.6
20260506191800 8 164 3.2 11.3 0.13 0.69 0.69 97 1012.4
20260506191659 8 161 3.2 11.3 0.13 0.69 0.69 97 1012.4
20260506191559 8 156 3.2 11.3 0.13 0.69 0.69 97 1012.7
20260506191501 8 150 3.2 11.3 0.13 0.69 0.69 97 1012.3
20260506191359 8 143 3.2 6.4 0.13 0.69 0.69 97 1012.3
20260506191259 8 142 3.2 6.4 0.13 0.69 0.69 97 1012.3
20260506191200 8 142 3.2 6.4 0.13 0.69 0.69 97 1012.2
20260506191100 8 141 3.2 9.7 0.15 0.69 0.69 97 1012.2
20260506190959 8 138 3.2 9.7 0.15 0.69 0.69 97 1012.3
20260506190859 8 136 3.2 9.7 0.15 0.69 0.69 97 1012.0
20260506190759 8 140 3.2 12.9 0.15 0.69 0.69 97 1012.2
20260506190700 8 146 0.0 12.9 0.15 0.69 0.69 97 1012.3
20260506190559 8 153 3.2 12.9 0.15 0.69 0.69 97 1012.0
20260506190459 8 159 3.2 12.9 0.15 0.69 0.69 97 1012.3
20260506190359 8 164 3.2 12.9 0.15 0.69 0.69 97 1012.2
20260506190300 8 162 3.2 12.9 0.15 0.69 0.69 97 1012.2
20260506190200 9 164 3.2 12.9 0.18 0.69 0.69 97 1012.1
20260506190059 8 167 1.6 12.9 0.18 0.69 0.69 97 1012.3
20260506190001 9 168 0.0 12.9 0.18 0.69 0.69 97 1012.2
20260506185859 9 168 0.0 12.9 0.18 0.69 0.69 97 1011.9
20260506185759 9 166 4.8 12.9 0.18 0.69 0.69 97 1012.1
20260506185700 9 159 4.8 12.9 0.18 0.69 0.69 97 1012.2
20260506185600 9 152 4.8 12.9 0.18 0.69 0.69 97 1012.3
20260506185359 9 139 3.2 12.9 0.15 0.66 0.66 97 1012.1
20260506185259 9 143 1.6 12.9 0.15 0.66 0.66 97 1012.0
20260506185200 9 140 1.6 12.9 0.15 0.66 0.66 97 1012.2
20260506185059 9 131 1.6 12.9 0.15 0.66 0.66 97 1012.2
20260506184959 9 122 1.6 12.9 0.15 0.66 0.66 97 1012.0
20260506184859 9 114 3.2 12.9 0.15 0.66 0.66 97 1012.1
20260506184759 9 106 6.4 12.9 0.15 0.66 0.66 97 1012.1
20260506184501 9 92 1.6 9.7 0.15 0.66 0.66 97 1012.1
20260506184359 9 90 1.6 9.7 0.15 0.66 0.66 97 1011.9
20260506184259 9 90 0.0 9.7 0.18 0.66 0.66 97 1011.9
20260506184200 9 90 3.2 9.7 0.15 0.64 0.64 97 1012.1
20260506184000 9 90 3.2 9.7 0.15 0.64 0.64 97 1011.9
20260506183859 9 90 3.2 9.7 0.15 0.64 0.64 97 1012.0
20260506183759 9 91 3.2 9.7 0.15 0.64 0.64 97 1012.0
20260506183700 9 92 3.2 9.7 0.15 0.64 0.64 97 1011.8
20260506183600 9 94 3.2 9.7 0.15 0.64 0.64 97 1011.8
20260506183459 9 100 1.6 9.7 0.13 0.61 0.61 97 1011.9
20260506183359 9 105 1.6 9.7 0.13 0.61 0.61 97 1011.9
20260506183259 9 107 1.6 9.7 0.13 0.61 0.61 97 1011.9
20260506183200 9 110 1.6 9.7 0.15 0.61 0.61 97 1011.8
20260506183100 9 115 1.6 9.7 0.15 0.61 0.61 97 1011.8
20260506183001 9 121 1.6 9.7 0.15 0.61 0.61 97 1011.6
20260506182859 9 131 3.2 9.7 0.15 0.61 0.61 97 1011.8
20260506182759 9 141 0.0 6.4 0.15 0.61 0.61 97 1011.8
20260506182700 9 146 1.6 6.4 0.15 0.61 0.61 97 1011.8
20260506182600 9 149 3.2 6.4 0.15 0.61 0.61 97 1011.6
20260506182459 9 125 3.2 6.4 0.13 0.56 0.56 97 1011.8
20260506182359 9 112 0.0 6.4 0.13 0.56 0.56 97 1011.7
20260506182259 9 112 0.0 6.4 0.13 0.56 0.56 97 1011.7
20260506182159 9 112 0.0 6.4 0.13 0.56 0.56 97 1011.8
20260506182100 9 117 0.0 6.4 0.13 0.56 0.56 97 1011.7
20260506182000 9 122 0.0 6.4 0.15 0.56 0.56 97 1011.7
20260506181859 9 127 0.0 6.4 0.15 0.56 0.56 97 1011.6
20260506181759 9 128 0.0 6.4 0.15 0.56 0.56 97 1011.6
20260506181659 9 127 0.0 6.4 0.15 0.56 0.56 97 1011.6
20260506181600 9 129 3.2 6.4 0.15 0.56 0.56 97 1011.5
20260506181501 9 134 0.0 3.2 0.15 0.56 0.56 97 1011.4
20260506181300 9 136 0.0 3.2 0.15 0.56 0.56 97 1011.8
20260506181200 9 144 0.0 3.2 0.15 0.56 0.56 97 1011.3
20260506181059 9 147 1.6 3.2 0.13 0.53 0.53 97 1011.7
20260506180859 9 147 1.6 3.2 0.13 0.53 0.53 97 1011.6
20260506180759 9 151 1.6 3.2 0.13 0.53 0.53 97 1011.6
20260506180659 10 154 0.0 3.2 0.15 0.53 0.53 97 1011.3
20260506180600 9 152 0.0 3.2 0.15 0.53 0.53 97 1011.7
20260506180500 9 152 0.0 3.2 0.15 0.53 0.53 97 1011.6
20260506180359 9 152 0.0 3.2 0.15 0.53 0.53 97 1011.7
20260506180259 9 155 0.0 3.2 0.15 0.53 0.53 97 1011.8
20260506180200 9 150 0.0 6.4 0.13 0.51 0.51 97 1011.6
20260506180100 9 145 0.0 6.4 0.13 0.51 0.51 97 1011.6
20260506180002 9 142 0.0 6.4 0.13 0.51 0.51 97 1011.6
20260506175900 9 139 0.0 6.4 0.13 0.51 0.51 97 1011.6
20260506175759 9 137 0.0 6.4 0.13 0.51 0.51 97 1011.5
20260506175659 10 135 0.0 6.4 0.13 0.51 0.51 97 1011.4
20260506175559 10 135 0.0 6.4 0.13 0.51 0.51 97 1011.7
20260506175400 10 135 0.0 6.4 0.13 0.51 0.51 97 1011.4
20260506175300 10 134 0.0 6.4 0.13 0.51 0.51 97 1011.5
20260506175159 10 133 3.2 6.4 0.13 0.51 0.51 96 1011.5
20260506175059 10 131 3.2 6.4 0.13 0.51 0.51 96 1011.2
20260506175000 10 130 3.2 6.4 0.13 0.51 0.51 96 1011.6
20260506174900 10 131 3.2 6.4 0.13 0.51 0.51 96 1011.6
20260506174759 10 133 3.2 6.4 0.13 0.51 0.51 96 1011.5
20260506174659 10 136 3.2 6.4 0.13 0.51 0.51 96 1011.7
20260506174559 10 139 1.6 3.2 0.13 0.51 0.51 96 1011.5
20260506174501 10 139 3.2 3.2 0.13 0.51 0.51 96 1011.5
20260506174359 10 144 0.0 6.4 0.10 0.48 0.48 96 1011.4
20260506174259 10 154 0.0 6.4 0.10 0.48 0.48 96 1011.3
20260506174200 10 161 0.0 6.4 0.13 0.48 0.48 96 1011.3
20260506174100 10 165 0.0 6.4 0.13 0.48 0.48 96 1011.3
20260506173959 10 167 0.0 6.4 0.15 0.48 0.48 96 1011.4
20260506173859 10 167 0.0 6.4 0.15 0.48 0.48 96 1011.6
20260506173800 10 163 0.0 6.4 0.15 0.48 0.48 96 1011.4
20260506173700 10 162 0.0 6.4 0.18 0.48 0.48 96 1011.5
20260506173559 10 158 0.0 6.4 0.18 0.48 0.48 96 1011.5
20260506173459 10 152 3.2 6.4 0.18 0.48 0.48 96 1011.6
20260506173359 10 146 3.2 6.4 0.20 0.48 0.48 96 1011.5
20260506173259 10 137 4.8 6.4 0.20 0.48 0.48 96 1011.3
20260506173201 10 122 3.2 6.4 0.18 0.46 0.46 96 1011.3
20260506173100 10 117 0.0 6.4 0.18 0.46 0.46 96 1011.5
20260506173001 10 115 0.0 6.4 0.18 0.46 0.46 96 1011.3
20260506172900 10 115 0.0 6.4 0.20 0.46 0.46 96 1011.4
20260506172759 10 115 3.2 6.4 0.20 0.46 0.46 96 1011.3
20260506172659 10 115 1.6 6.4 0.20 0.46 0.46 96 1011.3
20260506172459 10 118 1.6 6.4 0.20 0.46 0.46 96 1011.2
20260506172400 10 119 1.6 6.4 0.20 0.46 0.46 96 1011.3
20260506172200 10 129 1.6 6.4 0.20 0.46 0.46 96 1011.3
20260506172059 10 133 3.2 6.4 0.18 0.43 0.43 96 1011.3
20260506171959 10 144 0.0 6.4 0.18 0.43 0.43 96 1011.2
20260506171859 10 151 1.6 6.4 0.18 0.43 0.43 96 1011.2
20260506171800 10 156 1.6 6.4 0.18 0.43 0.43 96 1011.4
20260506171700 10 156 3.2 9.7 0.18 0.46 0.43 96 1011.1
20260506171559 10 154 0.0 9.7 0.18 0.46 0.43 96 1011.3
20260506171501 10 152 0.0 9.7 0.18 0.46 0.43 96 1011.2
20260506171359 10 152 0.0 9.7 0.18 0.46 0.43 96 1011.4
20260506171259 10 151 3.2 9.7 0.18 0.46 0.43 96 1011.3
20260506171059 10 157 3.2 9.7 0.18 0.51 0.43 96 1011.3
20260506171000 10 154 3.2 9.7 0.18 0.51 0.43 96 1011.3
20260506170900 10 149 3.2 9.7 0.18 0.51 0.43 96 1011.4
20260506170759 10 146 0.0 9.7 0.18 0.53 0.43 96 1011.2
20260506170559 10 148 0.0 9.7 0.15 0.51 0.38 96 1011.3
20260506170259 10 122 1.6 9.7 0.15 0.53 0.38 96 1011.4
20260506170159 10 115 1.6 9.7 0.15 0.53 0.38 96 1011.2
20260506170001 10 110 0.0 9.7 0.15 0.53 0.38 96 1011.1
20260506165859 10 113 0.0 9.7 0.15 0.56 0.38 96 1011.3
20260506165800 10 115 1.6 9.7 0.15 0.56 0.38 96 1011.4
20260506165700 10 113 4.8 9.7 0.15 0.61 0.38 96 1011.3
20260506165600 10 111 3.2 9.7 0.15 0.61 0.38 96 1011.2
20260506165459 10 114 3.2 9.7 0.15 0.61 0.38 96 1011.3
20260506165359 10 120 3.2 12.9 0.15 0.64 0.38 96 1011.2
20260506165259 10 128 3.2 12.9 0.15 0.66 0.38 96 1011.2
20260506165200 10 135 3.2 12.9 0.15 0.66 0.38 96 1011.1
20260506165100 10 137 0.0 12.9 0.15 0.66 0.38 96 1011.2
20260506164959 10 137 6.4 12.9 0.15 0.66 0.38 96 1011.3
20260506164859 10 138 6.4 12.9 0.15 0.66 0.38 96 1011.4
20260506164759 10 138 6.4 12.9 0.15 0.66 0.38 96 1011.3
20260506164559 10 139 6.4 12.9 0.15 0.66 0.38 96 1011.2
20260506164501 10 140 6.4 12.9 0.15 0.66 0.38 96 1011.2
20260506164359 10 143 6.4 12.9 0.15 0.66 0.38 95 1011.3
20260506164259 11 138 0.0 3.2 0.13 0.64 0.36 96 1011.2
20260506164200 11 140 1.6 3.2 0.13 0.64 0.36 95 1011.1
20260506164100 11 148 1.6 3.2 0.13 0.64 0.36 95 1011.2
20260506163959 11 150 1.6 3.2 0.10 0.61 0.33 95 1011.4
20260506163859 11 154 0.0 3.2 0.10 0.61 0.33 95 1011.3
20260506163700 11 190 0.0 3.2 0.05 0.56 0.30 95 1011.0
20260506163500 11 190 0.0 3.2 0.05 0.56 0.30 95 1011.1
20260506163359 11 190 0.0 3.2 0.03 0.53 0.28 95 1010.9
20260506163259 11 190 0.0 3.2 0.03 0.53 0.28 95 1011.1
20260506163159 11 204 1.6 3.2 0.03 0.53 0.28 95 1011.1
20260506163100 11 217 1.6 3.2 0.03 0.53 0.28 95 1011.2
20260506163001 11 221 0.0 3.2 0.00 0.51 0.23 95 1011.1
20260506162859 11 222 0.0 3.2 0.00 0.51 0.23 95 1011.2
20260506162759 11 224 0.0 3.2 0.00 0.51 0.23 95 1011.2
20260506162700 11 225 0.0 3.2 0.00 0.51 0.23 95 1011.0
20260506162600 11 225 0.0 3.2 0.00 0.51 0.23 95 1011.1
20260506162459 11 222 0.0 3.2 0.00 0.51 0.23 95 1011.1
20260506162359 11 221 0.0 3.2 0.00 0.51 0.23 95 1011.2
20260506162259 11 223 0.0 6.4 0.00 0.51 0.23 95 1011.0
20260506162200 11 231 1.6 6.4 0.00 0.51 0.23 95 1011.1
20260506162100 11 236 1.6 6.4 0.00 0.51 0.23 95 1011.0
20260506161859 11 243 1.6 6.4 0.00 0.51 0.23 95 1011.0
20260506161759 11 242 0.0 6.4 0.00 0.51 0.23 95 1010.9
20260506161659 11 240 0.0 6.4 0.00 0.51 0.23 95 1011.0
20260506161600 11 236 1.6 6.4 0.00 0.51 0.23 95 1010.8
20260506161501 11 237 0.0 6.4 0.00 0.51 0.23 95 1010.8
20260506161259 11 235 3.2 6.4 0.00 0.51 0.23 95 1010.9
20260506161200 11 232 3.2 6.4 0.00 0.51 0.23 95 1011.2
20260506161100 11 229 3.2 6.4 0.00 0.51 0.23 95 1011.1
20260506160959 11 225 3.2 6.4 0.00 0.51 0.23 95 1010.9
20260506160859 11 221 0.0 6.4 0.00 0.51 0.23 95 1011.1
20260506160759 11 220 0.0 6.4 0.00 0.51 0.23 95 1011.0
20260506160700 11 217 3.2 6.4 0.00 0.51 0.23 94 1011.2
20260506160459 11 219 3.2 6.4 0.00 0.51 0.23 94 1011.0
20260506160359 11 218 3.2 6.4 0.00 0.51 0.23 94 1011.1
20260506160300 11 217 0.0 3.2 0.00 0.51 0.23 94 1010.9
20260506160200 11 216 0.0 3.2 0.00 0.51 0.23 94 1010.9
20260506160100 11 215 0.0 3.2 0.00 0.51 0.23 94 1011.1
20260506160002 11 215 0.0 3.2 0.00 0.51 0.23 94 1011.0
20260506155700 11 217 0.0 3.2 0.00 0.51 0.23 94 1011.1
20260506155559 11 216 0.0 3.2 0.00 0.51 0.23 94 1011.0
20260506155459 11 220 0.0 3.2 0.00 0.51 0.23 94 1011.0
20260506155400 11 222 0.0 3.2 0.00 0.51 0.23 94 1010.9
20260506155200 11 222 0.0 3.2 0.00 0.51 0.23 94 1010.9
20260506155100 11 220 0.0 3.2 0.00 0.51 0.23 94 1010.8
20260506154959 11 220 1.6 3.2 0.00 0.51 0.23 94 1010.9
20260506154859 11 219 0.0 3.2 0.00 0.51 0.23 94 1010.9
20260506154800 11 220 0.0 3.2 0.00 0.51 0.23 94 1010.9
20260506154700 11 222 0.0 3.2 0.00 0.51 0.23 94 1010.7
20260506154600 11 225 1.6 3.2 0.00 0.51 0.23 94 1010.9
20260506154501 11 216 1.6 3.2 0.00 0.51 0.23 94 1010.9
20260506154400 11 208 0.0 3.2 0.00 0.51 0.23 94 1010.8
20260506154300 11 208 0.0 3.2 0.00 0.51 0.23 94 1011.0
20260506154200 11 207 0.0 3.2 0.00 0.51 0.23 93 1010.9
20260506154059 11 206 0.0 3.2 0.00 0.51 0.23 93 1010.7
20260506153959 11 203 0.0 6.4 0.00 0.51 0.23 93 1010.7
20260506153859 11 198 0.0 6.4 0.00 0.51 0.23 93 1010.9
20260506153800 11 196 0.0 6.4 0.00 0.51 0.23 93 1010.9
20260506153700 11 194 0.0 6.4 0.00 0.51 0.23 93 1011.0
20260506153559 11 193 0.0 6.4 0.00 0.51 0.23 93 1010.9
20260506153359 11 192 0.0 6.4 0.00 0.51 0.23 93 1010.8
20260506153300 11 191 0.0 6.4 0.00 0.51 0.23 93 1010.8
20260506153200 11 190 0.0 6.4 0.00 0.51 0.23 93 1010.7
20260506153059 11 189 1.6 6.4 0.00 0.51 0.23 93 1010.8
20260506152900 11 190 3.2 3.2 0.00 0.51 0.23 93 1010.9
20260506152759 11 194 0.0 3.2 0.00 0.51 0.23 93 1010.9
20260506152659 11 200 1.6 3.2 0.00 0.51 0.23 93 1010.8
20260506152600 11 203 0.0 3.2 0.00 0.51 0.23 93 1010.7
20260506152500 11 195 0.0 3.2 0.00 0.51 0.23 93 1010.6
20260506152400 11 197 0.0 3.2 0.00 0.51 0.23 93 1010.7
20260506152159 11 200 0.0 3.2 0.00 0.51 0.23 93 1010.8
20260506151900 11 185 0.0 6.4 0.00 0.51 0.23 93 1010.9
20260506151800 11 195 0.0 6.4 0.03 0.51 0.23 93 1011.0
20260506151700 11 204 0.0 6.4 0.03 0.51 0.23 93 1010.8
20260506151600 11 208 0.0 6.4 0.03 0.51 0.23 93 1010.8
20260506151501 11 212 0.0 6.4 0.03 0.51 0.23 93 1010.8
20260506151359 11 212 0.0 6.4 0.03 0.51 0.23 93 1010.8
20260506151259 11 211 0.0 6.4 0.03 0.51 0.23 93 1010.9
20260506151200 11 211 0.0 6.4 0.03 0.51 0.23 93 1010.9
20260506151000 11 212 0.0 6.4 0.03 0.51 0.23 93 1010.8
20260506150900 11 212 3.2 6.4 0.03 0.51 0.23 93 1010.9
20260506150759 11 214 3.2 6.4 0.03 0.51 0.23 93 1010.9
20260506150659 11 211 1.6 6.4 0.03 0.51 0.23 93 1010.8
20260506150559 11 207 3.2 6.4 0.03 0.51 0.23 93 1010.8
20260506150459 11 203 1.6 6.4 0.03 0.51 0.23 93 1010.7
20260506150400 11 200 0.0 6.4 0.03 0.51 0.23 93 1011.0
20260506150304 11 198 0.0 6.4 0.03 0.51 0.23 93 1010.7
20260506150200 11 195 0.0 6.4 0.03 0.51 0.23 93 1010.7
20260506150059 11 193 0.0 6.4 0.03 0.51 0.23 93 1010.9
20260506150001 11 192 0.0 6.4 0.03 0.51 0.23 93 1010.6
20260506145859 11 190 1.6 6.4 0.03 0.51 0.23 93 1010.5
20260506145700 11 193 0.0 6.4 0.03 0.51 0.23 93 1010.8
20260506145559 11 193 1.6 6.4 0.03 0.51 0.23 93 1010.7
20260506145500 11 194 0.0 6.4 0.03 0.51 0.23 93 1010.6
20260506145400 11 196 0.0 6.4 0.03 0.51 0.23 93 1010.8
20260506145200 11 199 0.0 6.4 0.03 0.51 0.23 93 1010.4